Time,TemperatureF,DewpointF,PressureIn,WindDirection,WindDirectionDegrees,WindSpeedMPH,WindSpeedGustMPH,Humidity,HourlyPrecipIn,Conditions,Clouds,dailyrainin,SoftwareType,DateUTC
2013-10-11 00:01:00,67.3,55.6,29.70,South,173,12.0,19.0,66,0.00,,---,0.00,VWS V14.01,2013-10-11 05:01:00,
2013-10-11 00:02:00,67.3,55.6,29.70,ESE,111,16.0,19.0,66,0.00,,---,0.00,VWS V14.01,2013-10-11 05:02:00,
2013-10-11 00:03:00,67.3,55.6,29.70,SE,142,17.0,22.0,66,0.00,,---,0.00,VWS V14.01,2013-10-11 05:03:00,
2013-10-11 00:06:00,67.3,55.6,29.70,SE,125,12.0,24.0,66,0.00,,---,0.00,VWS V14.01,2013-10-11 05:06:00,
2013-10-11 00:07:00,67.3,55.6,29.70,SE,137,15.0,24.0,66,0.00,,---,0.00,VWS V14.01,2013-10-11 05:07:00,
2013-10-11 00:08:00,67.1,55.4,29.70,SE,131,14.0,24.0,66,0.00,,---,0.00,VWS V14.01,2013-10-11 05:08:00,
2013-10-11 00:11:00,67.1,55.8,29.70,SSE,150,18.0,24.0,67,0.00,,---,0.00,VWS V14.01,2013-10-11 05:11:00,
2013-10-11 00:12:00,67.1,55.8,29.70,SSE,147,19.0,25.0,67,0.00,,---,0.00,VWS V14.01,2013-10-11 05:12:00,
2013-10-11 00:13:00,67.1,55.8,29.70,SE,146,17.0,25.0,67,0.00,,---,0.00,VWS V14.01,2013-10-11 05:13:00,
2013-10-11 00:16:00,67.1,55.8,29.70,SE,146,20.0,25.0,67,0.00,,---,0.00,VWS V14.01,2013-10-11 05:16:00,
2013-10-11 00:17:00,67.1,55.8,29.70,SSE,159,9.0,25.0,67,0.00,,---,0.00,VWS V14.01,2013-10-11 05:17:00,
2013-10-11 00:18:00,66.9,55.6,29.70,SE,142,19.0,25.0,67,0.00,,---,0.00,VWS V14.01,2013-10-11 05:18:00,
2013-10-11 00:21:00,67.1,55.8,29.70,SE,140,16.0,25.0,67,0.00,,---,0.00,VWS V14.01,2013-10-11 05:21:00,
2013-10-11 00:22:00,66.9,55.6,29.70,SSE,154,14.0,25.0,67,0.00,,---,0.00,VWS V14.01,2013-10-11 05:22:00,
2013-10-11 00:24:00,66.9,55.6,29.70,SE,140,23.0,25.0,67,0.00,,---,0.00,VWS V14.01,2013-10-11 05:24:00,
2013-10-11 00:26:00,66.9,55.6,29.70,SE,133,7.0,25.0,67,0.00,,---,0.00,VWS V14.01,2013-10-11 05:26:00,
2013-10-11 00:27:00,66.9,55.6,29.70,SSE,150,6.0,25.0,67,0.00,,---,0.00,VWS V14.01,2013-10-11 05:27:00,
2013-10-11 00:28:00,66.9,55.6,29.70,SSE,158,7.0,25.0,67,0.00,,---,0.00,VWS V14.01,2013-10-11 05:28:00,
2013-10-11 00:29:00,66.9,55.6,29.70,SE,140,21.0,25.0,67,0.00,,---,0.00,VWS V14.01,2013-10-11 05:29:00,
2013-10-11 00:31:00,66.8,55.5,29.71,SSE,151,6.0,22.0,67,0.00,,---,0.00,VWS V14.01,2013-10-11 05:31:00,
2013-10-11 00:32:00,66.8,55.5,29.71,SSE,152,6.0,22.0,67,0.00,,---,0.00,VWS V14.01,2013-10-11 05:32:00,
2013-10-11 00:33:00,66.8,55.5,29.71,SSE,156,10.0,22.0,67,0.00,,---,0.00,VWS V14.01,2013-10-11 05:33:00,
2013-10-11 00:34:00,66.8,55.5,29.71,SSE,150,12.0,22.0,67,0.00,,---,0.00,VWS V14.01,2013-10-11 05:34:00,
2013-10-11 00:36:00,66.8,55.9,29.71,SSE,150,6.0,22.0,68,0.00,,---,0.00,VWS V14.01,2013-10-11 05:36:00,
2013-10-11 00:37:00,66.8,55.9,29.71,SE,142,6.0,22.0,68,0.00,,---,0.00,VWS V14.01,2013-10-11 05:37:00,
2013-10-11 00:38:00,66.8,55.9,29.71,SSE,162,15.0,22.0,68,0.00,,---,0.00,VWS V14.01,2013-10-11 05:38:00,
2013-10-11 00:39:00,66.8,55.5,29.71,SSE,161,11.0,22.0,67,0.00,,---,0.00,VWS V14.01,2013-10-11 05:39:00,
2013-10-11 00:41:00,66.8,55.5,29.71,SSE,152,15.0,19.0,67,0.00,,---,0.00,VWS V14.01,2013-10-11 05:41:00,
2013-10-11 00:42:00,66.8,55.5,29.71,SSE,153,6.0,23.0,67,0.00,,---,0.00,VWS V14.01,2013-10-11 05:42:00,
2013-10-11 00:43:00,66.8,55.5,29.71,SSE,152,9.0,23.0,67,0.00,,---,0.00,VWS V14.01,2013-10-11 05:43:00,
2013-10-11 00:44:00,66.8,55.5,29.71,SSE,148,11.0,23.0,67,0.00,,---,0.00,VWS V14.01,2013-10-11 05:44:00,
2013-10-11 00:46:00,66.8,55.5,29.71,SE,146,10.0,23.0,67,0.00,,---,0.00,VWS V14.01,2013-10-11 05:46:00,
2013-10-11 00:47:00,66.6,55.7,29.71,SE,124,13.0,23.0,68,0.00,,---,0.00,VWS V14.01,2013-10-11 05:47:00,
2013-10-11 00:48:00,66.6,55.7,29.71,SSE,160,11.0,23.0,68,0.00,,---,0.00,VWS V14.01,2013-10-11 05:48:00,
2013-10-11 00:49:00,66.6,55.7,29.71,SSE,149,14.0,23.0,68,0.00,,---,0.00,VWS V14.01,2013-10-11 05:49:00,
2013-10-11 00:51:00,66.6,55.7,29.71,SSE,149,7.0,21.0,68,0.00,,---,0.00,VWS V14.01,2013-10-11 05:51:00,
2013-10-11 00:52:00,66.6,55.7,29.71,SSE,152,10.0,21.0,68,0.00,,---,0.00,VWS V14.01,2013-10-11 05:52:00,
2013-10-11 00:53:00,66.6,55.7,29.71,SSE,159,13.0,21.0,68,0.00,,---,0.00,VWS V14.01,2013-10-11 05:53:00,
2013-10-11 00:54:00,66.6,55.3,29.71,SSE,147,17.0,21.0,67,0.00,,---,0.00,VWS V14.01,2013-10-11 05:54:00,
2013-10-11 00:56:00,66.8,55.5,29.71,SSE,152,4.0,21.0,67,0.00,,---,0.00,VWS V14.01,2013-10-11 05:56:00,
2013-10-11 00:57:00,66.8,55.5,29.71,SSE,153,9.0,21.0,67,0.00,,---,0.00,VWS V14.01,2013-10-11 05:57:00,
2013-10-11 00:58:00,66.8,55.5,29.71,SSE,148,14.0,21.0,67,0.00,,---,0.00,VWS V14.01,2013-10-11 05:58:00,
2013-10-11 00:59:00,66.8,55.5,29.70,SE,141,17.0,22.0,67,0.00,,---,0.00,VWS V14.01,2013-10-11 05:59:00,
2013-10-11 01:02:00,66.8,55.5,29.70,SE,144,20.0,22.0,67,0.00,,---,0.00,VWS V14.01,2013-10-11 06:02:00,
2013-10-11 01:03:00,66.8,55.5,29.70,SE,144,16.0,23.0,67,0.00,,---,0.00,VWS V14.01,2013-10-11 06:03:00,
2013-10-11 01:04:00,66.8,55.5,29.70,SSE,147,12.0,23.0,67,0.00,,---,0.00,VWS V14.01,2013-10-11 06:04:00,
2013-10-11 01:07:00,66.8,55.5,29.70,SE,136,10.0,23.0,67,0.00,,---,0.00,VWS V14.01,2013-10-11 06:07:00,
2013-10-11 01:08:00,66.8,55.5,29.70,SE,146,11.0,23.0,67,0.00,,---,0.00,VWS V14.01,2013-10-11 06:08:00,
2013-10-11 01:09:00,66.8,55.5,29.70,SE,137,17.0,23.0,67,0.00,,---,0.00,VWS V14.01,2013-10-11 06:09:00,
2013-10-11 01:10:00,66.8,55.5,29.70,SE,142,16.0,23.0,67,0.00,,---,0.00,VWS V14.01,2013-10-11 06:10:00,
2013-10-11 01:12:00,66.8,55.5,29.70,SE,144,10.0,20.0,67,0.00,,---,0.00,VWS V14.01,2013-10-11 06:12:00,
2013-10-11 01:14:00,66.9,55.6,29.70,SSE,151,15.0,21.0,67,0.00,,---,0.00,VWS V14.01,2013-10-11 06:14:00,
2013-10-11 01:15:00,66.9,55.6,29.70,SE,142,15.0,21.0,67,0.00,,---,0.00,VWS V14.01,2013-10-11 06:15:00,
2013-10-11 01:17:00,66.9,55.2,29.70,SE,145,14.0,21.0,66,0.00,,---,0.00,VWS V14.01,2013-10-11 06:17:00,
2013-10-11 01:19:00,66.9,55.2,29.70,SE,143,6.0,21.0,66,0.00,,---,0.00,VWS V14.01,2013-10-11 06:19:00,
2013-10-11 01:20:00,66.9,55.2,29.70,SE,140,18.0,18.0,66,0.00,,---,0.00,VWS V14.01,2013-10-11 06:20:00,
2013-10-11 01:22:00,66.9,55.2,29.70,South,171,10.0,20.0,66,0.00,,---,0.00,VWS V14.01,2013-10-11 06:22:00,
2013-10-11 01:23:00,66.9,55.2,29.70,SE,134,21.0,21.0,66,0.00,,---,0.00,VWS V14.01,2013-10-11 06:23:00,
2013-10-11 01:24:00,67.1,55.4,29.70,SE,131,14.0,21.0,66,0.00,,---,0.00,VWS V14.01,2013-10-11 06:24:00,
2013-10-11 01:25:00,67.1,55.4,29.70,SSE,154,10.0,23.0,66,0.00,,---,0.00,VWS V14.01,2013-10-11 06:25:00,
2013-10-11 01:27:00,67.1,55.4,29.70,SE,134,18.0,23.0,66,0.00,,---,0.00,VWS V14.01,2013-10-11 06:27:00,
2013-10-11 01:28:00,67.1,55.4,29.70,SSE,154,10.0,23.0,66,0.00,,---,0.00,VWS V14.01,2013-10-11 06:28:00,
2013-10-11 01:29:00,67.1,55.4,29.70,SSE,148,14.0,23.0,66,0.00,,---,0.00,VWS V14.01,2013-10-11 06:29:00,
2013-10-11 01:30:00,67.1,55.4,29.70,SSW,202,9.0,9.0,66,0.00,,---,0.00,VWS V14.01,2013-10-11 06:30:00,
2013-10-11 01:32:00,67.1,55.4,29.70,SSE,162,6.0,13.0,66,0.00,,---,0.00,VWS V14.01,2013-10-11 06:32:00,
2013-10-11 01:33:00,67.1,55.4,29.70,South,172,6.0,13.0,66,0.00,,---,0.00,VWS V14.01,2013-10-11 06:33:00,
2013-10-11 01:34:00,67.1,55.4,29.70,SSE,149,6.0,13.0,66,0.00,,---,0.00,VWS V14.01,2013-10-11 06:34:00,
2013-10-11 01:35:00,67.1,55.4,29.70,South,188,7.0,13.0,66,0.00,,---,0.00,VWS V14.01,2013-10-11 06:35:00,
2013-10-11 01:37:00,67.1,55.4,29.70,South,188,9.0,14.0,66,0.00,,---,0.00,VWS V14.01,2013-10-11 06:37:00,
2013-10-11 01:38:00,67.1,55.4,29.70,South,189,9.0,14.0,66,0.00,,---,0.00,VWS V14.01,2013-10-11 06:38:00,
2013-10-11 01:39:00,67.1,55.4,29.70,South,178,6.0,14.0,66,0.00,,---,0.00,VWS V14.01,2013-10-11 06:39:00,
2013-10-11 01:40:00,67.1,55.4,29.70,SSE,161,6.0,14.0,66,0.00,,---,0.00,VWS V14.01,2013-10-11 06:40:00,
2013-10-11 01:41:00,67.1,55.4,29.70,South,173,4.0,5.0,66,0.00,,---,0.00,VWS V14.01,2013-10-11 06:41:00,
2013-10-11 01:42:00,66.9,55.2,29.70,South,172,0.0,5.0,66,0.00,,---,0.00,VWS V14.01,2013-10-11 06:42:00,
2013-10-11 01:43:00,66.9,55.2,29.70,SSE,152,7.0,7.0,66,0.00,,---,0.00,VWS V14.01,2013-10-11 06:43:00,
2013-10-11 01:44:00,66.9,56.0,29.73,South,180,4.0,12.0,68,0.00,,---,0.00,VWS V14.01,2013-10-11 06:44:00,
2013-10-11 01:45:00,66.9,56.0,29.73,SSW,198,6.0,12.0,68,0.00,,---,0.00,VWS V14.01,2013-10-11 06:45:00,
2013-10-11 01:46:00,67.1,56.2,29.73,SSE,153,9.0,12.0,68,0.00,,---,0.00,VWS V14.01,2013-10-11 06:46:00,
2013-10-11 01:47:00,67.1,55.4,29.73,South,172,5.0,12.0,66,0.00,,---,0.00,VWS V14.01,2013-10-11 06:47:00,
2013-10-11 01:48:00,67.1,55.4,29.73,SSE,152,3.0,12.0,66,0.00,,---,0.00,VWS V14.01,2013-10-11 06:48:00,
2013-10-11 01:49:00,67.1,55.4,29.73,SE,142,3.0,12.0,66,0.00,,---,0.00,VWS V14.01,2013-10-11 06:49:00,
2013-10-11 01:50:00,67.1,55.4,29.73,SSE,165,4.0,13.0,66,0.00,,---,0.00,VWS V14.01,2013-10-11 06:50:00,
2013-10-11 01:51:00,67.1,55.4,29.73,SE,140,9.0,12.0,66,0.00,,---,0.00,VWS V14.01,2013-10-11 06:51:00,
2013-10-11 01:52:00,67.1,55.0,29.73,South,171,4.0,12.0,65,0.00,,---,0.00,VWS V14.01,2013-10-11 06:52:00,
2013-10-11 01:53:00,67.1,55.0,29.73,South,178,9.0,13.0,65,0.00,,---,0.00,VWS V14.01,2013-10-11 06:53:00,
2013-10-11 01:54:00,67.1,55.0,29.73,SSE,159,4.0,13.0,65,0.00,,---,0.00,VWS V14.01,2013-10-11 06:54:00,
2013-10-11 01:55:00,67.1,55.0,29.73,South,170,10.0,13.0,65,0.00,,---,0.00,VWS V14.01,2013-10-11 06:55:00,
2013-10-11 01:56:00,67.1,55.0,29.73,SE,146,11.0,13.0,65,0.00,,---,0.00,VWS V14.01,2013-10-11 06:56:00,
2013-10-11 01:57:00,67.1,55.0,29.73,South,175,5.0,13.0,65,0.00,,---,0.00,VWS V14.01,2013-10-11 06:57:00,
2013-10-11 01:58:00,67.1,55.0,29.73,SSE,155,6.0,13.0,65,0.00,,---,0.00,VWS V14.01,2013-10-11 06:58:00,
2013-10-11 01:59:00,67.1,55.0,29.73,SSE,157,4.0,13.0,65,0.00,,---,0.00,VWS V14.01,2013-10-11 06:59:00,
2013-10-11 02:00:00,67.1,55.0,29.73,SSE,153,7.0,7.0,65,0.00,,---,0.00,VWS V14.01,2013-10-11 07:00:00,
2013-10-11 02:01:00,67.1,55.0,29.73,South,172,5.0,9.0,65,0.00,,---,0.00,VWS V14.01,2013-10-11 07:01:00,
2013-10-11 02:02:00,67.1,55.0,29.73,SSE,156,7.0,9.0,65,0.00,,---,0.00,VWS V14.01,2013-10-11 07:02:00,
2013-10-11 02:03:00,67.1,55.0,29.73,South,190,6.0,9.0,65,0.00,,---,0.00,VWS V14.01,2013-10-11 07:03:00,
2013-10-11 02:05:00,67.1,55.0,29.73,South,188,10.0,13.0,65,0.00,,---,0.00,VWS V14.01,2013-10-11 07:05:00,
2013-10-11 02:06:00,67.1,55.0,29.73,SSE,161,10.0,13.0,65,0.00,,---,0.00,VWS V14.01,2013-10-11 07:06:00,
2013-10-11 02:07:00,67.1,55.0,29.73,SE,143,16.0,16.0,65,0.00,,---,0.00,VWS V14.01,2013-10-11 07:07:00,
2013-10-11 02:08:00,67.3,55.2,29.73,SSE,153,17.0,17.0,65,0.00,,---,0.00,VWS V14.01,2013-10-11 07:08:00,
2013-10-11 02:10:00,67.3,55.2,29.73,SSE,155,7.0,17.0,65,0.00,,---,0.00,VWS V14.01,2013-10-11 07:10:00,
2013-10-11 02:11:00,67.3,55.2,29.73,SE,146,2.0,9.0,65,0.00,,---,0.00,VWS V14.01,2013-10-11 07:11:00,
2013-10-11 02:12:00,67.3,55.2,29.73,SSE,153,4.0,13.0,65,0.00,,---,0.00,VWS V14.01,2013-10-11 07:12:00,
2013-10-11 02:13:00,67.1,55.0,29.73,SSE,155,12.0,21.0,65,0.00,,---,0.00,VWS V14.01,2013-10-11 07:13:00,
2013-10-11 02:15:00,67.3,55.2,29.71,SSE,150,11.0,21.0,65,0.00,,---,0.00,VWS V14.01,2013-10-11 07:15:00,
2013-10-11 02:16:00,67.3,55.2,29.71,South,182,10.0,21.0,65,0.00,,---,0.00,VWS V14.01,2013-10-11 07:16:00,
2013-10-11 02:17:00,67.1,55.0,29.71,SSE,164,7.0,21.0,65,0.00,,---,0.00,VWS V14.01,2013-10-11 07:17:00,
2013-10-11 02:18:00,67.1,55.0,29.71,SSE,157,10.0,21.0,65,0.00,,---,0.00,VWS V14.01,2013-10-11 07:18:00,
2013-10-11 02:19:00,67.1,55.0,29.71,SSE,153,11.0,21.0,65,0.00,,---,0.00,VWS V14.01,2013-10-11 07:19:00,
2013-10-11 02:20:00,67.1,55.0,29.71,SSE,161,4.0,21.0,65,0.00,,---,0.00,VWS V14.01,2013-10-11 07:20:00,
2013-10-11 02:21:00,67.1,55.0,29.71,SSE,147,20.0,20.0,65,0.00,,---,0.00,VWS V14.01,2013-10-11 07:21:00,
2013-10-11 02:22:00,67.1,55.0,29.71,SSE,155,16.0,20.0,65,0.00,,---,0.00,VWS V14.01,2013-10-11 07:22:00,
2013-10-11 02:23:00,67.1,55.0,29.71,SE,140,12.0,20.0,65,0.00,,---,0.00,VWS V14.01,2013-10-11 07:23:00,
2013-10-11 02:24:00,67.1,55.0,29.71,SE,141,21.0,22.0,65,0.00,,---,0.00,VWS V14.01,2013-10-11 07:24:00,
2013-10-11 02:25:00,67.1,55.0,29.71,SSE,155,4.0,22.0,65,0.00,,---,0.00,VWS V14.01,2013-10-11 07:25:00,
2013-10-11 02:26:00,67.1,55.0,29.71,SSE,150,10.0,22.0,65,0.00,,---,0.00,VWS V14.01,2013-10-11 07:26:00,
2013-10-11 02:27:00,66.9,54.8,29.71,SSE,151,12.0,22.0,65,0.00,,---,0.00,VWS V14.01,2013-10-11 07:27:00,
2013-10-11 02:28:00,66.9,54.8,29.71,SE,146,7.0,22.0,65,0.00,,---,0.00,VWS V14.01,2013-10-11 07:28:00,
2013-10-11 02:29:00,66.9,54.8,29.71,SSE,153,9.0,22.0,65,0.00,,---,0.00,VWS V14.01,2013-10-11 07:29:00,
2013-10-11 02:30:00,66.9,54.8,29.71,SSE,165,4.0,22.0,65,0.00,,---,0.00,VWS V14.01,2013-10-11 07:30:00,
2013-10-11 02:32:00,66.9,54.8,29.71,SSE,161,1.0,9.0,65,0.00,,---,0.00,VWS V14.01,2013-10-11 07:32:00,
2013-10-11 02:33:00,66.8,54.7,29.71,South,177,6.0,16.0,65,0.00,,---,0.00,VWS V14.01,2013-10-11 07:33:00,
2013-10-11 02:34:00,66.8,54.7,29.71,SSE,167,1.0,16.0,65,0.00,,---,0.00,VWS V14.01,2013-10-11 07:34:00,
2013-10-11 02:35:00,66.8,54.7,29.71,South,188,3.0,16.0,65,0.00,,---,0.00,VWS V14.01,2013-10-11 07:35:00,
2013-10-11 02:37:00,66.8,55.1,29.71,SSE,155,2.0,16.0,66,0.00,,---,0.00,VWS V14.01,2013-10-11 07:37:00,
2013-10-11 02:38:00,66.6,54.9,29.71,SSE,161,0.0,16.0,66,0.00,,---,0.00,VWS V14.01,2013-10-11 07:38:00,
2013-10-11 02:39:00,66.6,54.9,29.71,SSE,165,4.0,16.0,66,0.00,,---,0.00,VWS V14.01,2013-10-11 07:39:00,
2013-10-11 02:40:00,66.6,54.9,29.71,South,175,4.0,6.0,66,0.00,,---,0.00,VWS V14.01,2013-10-11 07:40:00,
2013-10-11 02:42:00,66.4,54.7,29.71,SE,146,6.0,12.0,66,0.00,,---,0.00,VWS V14.01,2013-10-11 07:42:00,
2013-10-11 02:43:00,66.4,54.7,29.71,SSE,162,2.0,12.0,66,0.00,,---,0.00,VWS V14.01,2013-10-11 07:43:00,
2013-10-11 02:44:00,66.4,54.7,29.71,South,185,6.0,14.0,66,0.00,,---,0.00,VWS V14.01,2013-10-11 07:44:00,
2013-10-11 02:45:00,66.4,54.7,29.71,SSE,161,5.0,14.0,66,0.00,,---,0.00,VWS V14.01,2013-10-11 07:45:00,
2013-10-11 02:47:00,66.3,54.6,29.71,SSE,148,3.0,15.0,66,0.00,,---,0.00,VWS V14.01,2013-10-11 07:47:00,
2013-10-11 02:48:00,66.3,55.0,29.71,SSE,156,4.0,15.0,67,0.00,,---,0.00,VWS V14.01,2013-10-11 07:48:00,
2013-10-11 02:49:00,66.3,55.0,29.71,SE,140,17.0,17.0,67,0.00,,---,0.00,VWS V14.01,2013-10-11 07:49:00,
2013-10-11 02:51:00,66.3,55.0,29.71,SSE,148,9.0,9.0,67,0.00,,---,0.00,VWS V14.01,2013-10-11 07:51:00,
2013-10-11 02:52:00,66.3,55.0,29.71,SSE,153,7.0,15.0,67,0.00,,---,0.00,VWS V14.01,2013-10-11 07:52:00,
2013-10-11 02:53:00,66.3,55.0,29.71,SSE,161,5.0,15.0,67,0.00,,---,0.00,VWS V14.01,2013-10-11 07:53:00,
2013-10-11 02:54:00,66.3,55.0,29.71,SSE,153,10.0,17.0,67,0.00,,---,0.00,VWS V14.01,2013-10-11 07:54:00,
2013-10-11 02:56:00,66.3,55.0,29.71,SE,146,14.0,18.0,67,0.00,,---,0.00,VWS V14.01,2013-10-11 07:56:00,
2013-10-11 02:57:00,66.3,55.0,29.71,SE,145,14.0,19.0,67,0.00,,---,0.00,VWS V14.01,2013-10-11 07:57:00,
2013-10-11 02:58:00,66.3,55.0,29.71,SSE,148,10.0,19.0,67,0.00,,---,0.00,VWS V14.01,2013-10-11 07:58:00,
2013-10-11 02:59:00,66.3,55.0,29.70,SE,144,3.0,19.0,67,0.00,,---,0.00,VWS V14.01,2013-10-11 07:59:00,
2013-10-11 03:02:00,66.1,54.8,29.70,SSE,156,4.0,12.0,67,0.00,,---,0.00,VWS V14.01,2013-10-11 08:02:00,
2013-10-11 03:03:00,66.1,54.8,29.70,SSE,159,7.0,12.0,67,0.00,,---,0.00,VWS V14.01,2013-10-11 08:03:00,
2013-10-11 03:04:00,66.1,54.8,29.70,SSE,152,6.0,18.0,67,0.00,,---,0.00,VWS V14.01,2013-10-11 08:04:00,
2013-10-11 03:07:00,66.0,54.7,29.70,SSE,149,9.0,18.0,67,0.00,,---,0.00,VWS V14.01,2013-10-11 08:07:00,
2013-10-11 03:08:00,66.0,54.7,29.70,SSE,149,0.0,18.0,67,0.00,,---,0.00,VWS V14.01,2013-10-11 08:08:00,
2013-10-11 03:09:00,66.0,54.7,29.70,South,170,4.0,18.0,67,0.00,,---,0.00,VWS V14.01,2013-10-11 08:09:00,
2013-10-11 03:12:00,66.0,54.7,29.70,SSE,167,5.0,14.0,67,0.00,,---,0.00,VWS V14.01,2013-10-11 08:12:00,
2013-10-11 03:13:00,66.0,54.7,29.70,SSE,153,3.0,14.0,67,0.00,,---,0.00,VWS V14.01,2013-10-11 08:13:00,
2013-10-11 03:14:00,66.0,54.7,29.70,SSW,202,2.0,14.0,67,0.00,,---,0.00,VWS V14.01,2013-10-11 08:14:00,
2013-10-11 03:17:00,66.0,54.7,29.70,South,185,4.0,14.0,67,0.00,,---,0.00,VWS V14.01,2013-10-11 08:17:00,
2013-10-11 03:18:00,66.0,55.2,29.70,South,184,1.0,14.0,68,0.00,,---,0.00,VWS V14.01,2013-10-11 08:18:00,
2013-10-11 03:19:00,66.0,55.2,29.70,South,184,3.0,14.0,68,0.00,,---,0.00,VWS V14.01,2013-10-11 08:19:00,
2013-10-11 03:22:00,66.0,55.2,29.70,South,180,5.0,7.0,68,0.00,,---,0.00,VWS V14.01,2013-10-11 08:22:00,
2013-10-11 03:23:00,66.0,55.2,29.70,SE,139,7.0,7.0,68,0.00,,---,0.00,VWS V14.01,2013-10-11 08:23:00,
2013-10-11 03:24:00,66.0,55.2,29.70,South,179,6.0,7.0,68,0.00,,---,0.00,VWS V14.01,2013-10-11 08:24:00,
2013-10-11 03:27:00,66.0,55.2,29.70,South,178,6.0,12.0,68,0.00,,---,0.00,VWS V14.01,2013-10-11 08:27:00,
2013-10-11 03:28:00,66.0,55.2,29.70,SSW,200,3.0,12.0,68,0.00,,---,0.00,VWS V14.01,2013-10-11 08:28:00,
2013-10-11 03:30:00,65.8,55.0,29.70,South,175,4.0,12.0,68,0.00,,---,0.00,VWS V14.01,2013-10-11 08:30:00,
2013-10-11 03:32:00,65.8,55.0,29.70,SSE,165,2.0,10.0,68,0.00,,---,0.00,VWS V14.01,2013-10-11 08:32:00,
2013-10-11 03:33:00,65.8,55.0,29.70,SSE,165,0.0,10.0,68,0.00,,---,0.00,VWS V14.01,2013-10-11 08:33:00,
2013-10-11 03:35:00,65.8,55.0,29.70,SSE,164,3.0,10.0,68,0.00,,---,0.00,VWS V14.01,2013-10-11 08:35:00,
2013-10-11 03:37:00,65.8,55.0,29.70,SSE,154,2.0,10.0,68,0.00,,---,0.00,VWS V14.01,2013-10-11 08:37:00,
2013-10-11 03:38:00,65.8,55.0,29.70,South,182,4.0,10.0,68,0.00,,---,0.00,VWS V14.01,2013-10-11 08:38:00,
2013-10-11 03:40:00,65.8,55.0,29.70,SSE,157,5.0,10.0,68,0.00,,---,0.00,VWS V14.01,2013-10-11 08:40:00,
2013-10-11 03:42:00,65.6,54.8,29.70,South,171,5.0,7.0,68,0.00,,---,0.00,VWS V14.01,2013-10-11 08:42:00,
2013-10-11 03:43:00,65.6,54.8,29.70,SSE,168,3.0,7.0,68,0.00,,---,0.00,VWS V14.01,2013-10-11 08:43:00,
2013-10-11 03:44:00,65.6,54.8,29.70,SSE,159,5.0,7.0,68,0.00,,---,0.00,VWS V14.01,2013-10-11 08:44:00,
2013-10-11 03:45:00,65.6,54.8,29.70,SSE,153,4.0,7.0,68,0.00,,---,0.00,VWS V14.01,2013-10-11 08:45:00,
2013-10-11 03:47:00,65.8,55.0,29.70,SE,145,0.0,7.0,68,0.00,,---,0.00,VWS V14.01,2013-10-11 08:47:00,
2013-10-11 03:48:00,65.8,55.0,29.70,South,171,6.0,7.0,68,0.00,,---,0.00,VWS V14.01,2013-10-11 08:48:00,
2013-10-11 03:49:00,65.8,55.0,29.70,SE,140,3.0,7.0,68,0.00,,---,0.00,VWS V14.01,2013-10-11 08:49:00,
2013-10-11 03:50:00,65.8,55.0,29.70,SSE,150,6.0,7.0,68,0.00,,---,0.00,VWS V14.01,2013-10-11 08:50:00,
2013-10-11 03:53:00,65.8,55.0,29.70,SSE,156,1.0,6.0,68,0.00,,---,0.00,VWS V14.01,2013-10-11 08:53:00,
2013-10-11 03:54:00,65.8,55.0,29.70,SSE,157,0.0,6.0,68,0.00,,---,0.00,VWS V14.01,2013-10-11 08:54:00,
2013-10-11 03:55:00,65.6,54.8,29.70,SSE,159,0.0,6.0,68,0.00,,---,0.00,VWS V14.01,2013-10-11 08:55:00,
2013-10-11 03:58:00,65.6,54.8,29.70,SSE,151,2.0,7.0,68,0.00,,---,0.00,VWS V14.01,2013-10-11 08:58:00,
2013-10-11 03:59:00,65.6,54.8,29.70,SSE,167,2.0,7.0,68,0.00,,---,0.00,VWS V14.01,2013-10-11 08:59:00,
2013-10-11 04:00:00,65.6,54.8,29.70,South,172,2.0,3.0,68,0.00,,---,0.00,VWS V14.01,2013-10-11 09:00:00,
2013-10-11 04:03:00,65.6,54.8,29.70,South,183,2.0,6.0,68,0.00,,---,0.00,VWS V14.01,2013-10-11 09:03:00,
2013-10-11 04:04:00,65.6,54.8,29.70,South,183,0.0,6.0,68,0.00,,---,0.00,VWS V14.01,2013-10-11 09:04:00,
2013-10-11 04:05:00,65.6,54.8,29.70,South,183,2.0,6.0,68,0.00,,---,0.00,VWS V14.01,2013-10-11 09:05:00,
2013-10-11 04:08:00,65.6,54.8,29.70,South,183,2.0,7.0,68,0.00,,---,0.00,VWS V14.01,2013-10-11 09:08:00,
2013-10-11 04:09:00,65.6,54.8,29.70,South,183,0.0,7.0,68,0.00,,---,0.00,VWS V14.01,2013-10-11 09:09:00,
2013-10-11 04:10:00,65.6,55.2,29.70,South,183,0.0,0.0,69,0.00,,---,0.00,VWS V14.01,2013-10-11 09:10:00,
2013-10-11 04:13:00,65.6,55.2,29.70,SSE,163,0.0,1.0,69,0.00,,---,0.00,VWS V14.01,2013-10-11 09:13:00,
2013-10-11 04:14:00,65.6,55.2,29.70,SE,144,1.0,9.0,69,0.00,,---,0.00,VWS V14.01,2013-10-11 09:14:00,
2013-10-11 04:15:00,65.6,55.2,29.69,SE,146,2.0,9.0,69,0.00,,---,0.00,VWS V14.01,2013-10-11 09:15:00,
2013-10-11 04:18:00,65.6,54.8,29.69,SE,138,6.0,11.0,68,0.00,,---,0.00,VWS V14.01,2013-10-11 09:18:00,
2013-10-11 04:19:00,65.6,54.8,29.69,SE,139,6.0,11.0,68,0.00,,---,0.00,VWS V14.01,2013-10-11 09:19:00,
2013-10-11 04:20:00,65.6,54.8,29.69,SE,142,4.0,6.0,68,0.00,,---,0.00,VWS V14.01,2013-10-11 09:20:00,
2013-10-11 04:23:00,65.6,55.2,29.69,SE,143,4.0,7.0,69,0.00,,---,0.00,VWS V14.01,2013-10-11 09:23:00,
2013-10-11 04:24:00,65.5,55.1,29.69,SE,144,4.0,7.0,69,0.00,,---,0.00,VWS V14.01,2013-10-11 09:24:00,
2013-10-11 04:25:00,65.5,55.1,29.69,SE,143,4.0,7.0,69,0.00,,---,0.00,VWS V14.01,2013-10-11 09:25:00,
2013-10-11 04:28:00,65.5,55.1,29.69,SE,144,6.0,10.0,69,0.00,,---,0.00,VWS V14.01,2013-10-11 09:28:00,
2013-10-11 04:29:00,65.3,54.9,29.69,SE,128,4.0,10.0,69,0.00,,---,0.00,VWS V14.01,2013-10-11 09:29:00,
2013-10-11 04:30:00,65.3,54.9,29.68,SE,140,6.0,10.0,69,0.00,,---,0.00,VWS V14.01,2013-10-11 09:30:00,
2013-10-11 04:33:00,65.3,55.3,29.68,SE,145,7.0,10.0,70,0.00,,---,0.00,VWS V14.01,2013-10-11 09:33:00,
2013-10-11 04:34:00,65.3,55.3,29.68,SE,145,7.0,10.0,70,0.00,,---,0.00,VWS V14.01,2013-10-11 09:34:00,
2013-10-11 04:35:00,65.3,55.3,29.68,SE,146,4.0,10.0,70,0.00,,---,0.00,VWS V14.01,2013-10-11 09:35:00,
2013-10-11 04:38:00,65.2,55.2,29.68,SE,146,11.0,11.0,70,0.00,,---,0.00,VWS V14.01,2013-10-11 09:38:00,
2013-10-11 04:39:00,65.2,55.2,29.68,SE,139,10.0,12.0,70,0.00,,---,0.00,VWS V14.01,2013-10-11 09:39:00,
2013-10-11 04:40:00,65.0,55.4,29.68,SE,140,9.0,10.0,71,0.00,,---,0.00,VWS V14.01,2013-10-11 09:40:00,
2013-10-11 04:41:00,65.0,55.4,29.68,SE,138,9.0,11.0,71,0.00,,---,0.00,VWS V14.01,2013-10-11 09:41:00,
2013-10-11 04:43:00,65.0,55.4,29.68,SE,143,9.0,12.0,71,0.00,,---,0.00,VWS V14.01,2013-10-11 09:43:00,
2013-10-11 04:44:00,64.8,55.6,29.68,SE,146,10.0,12.0,72,0.00,,---,0.00,VWS V14.01,2013-10-11 09:44:00,
2013-10-11 04:45:00,64.8,55.6,29.68,SE,138,9.0,12.0,72,0.00,,---,0.00,VWS V14.01,2013-10-11 09:45:00,
2013-10-11 04:46:00,64.7,55.5,29.68,SE,144,13.0,13.0,72,0.00,,---,0.00,VWS V14.01,2013-10-11 09:46:00,
2013-10-11 04:48:00,64.7,55.9,29.68,SSE,150,11.0,13.0,73,0.00,,---,0.00,VWS V14.01,2013-10-11 09:48:00,
2013-10-11 04:49:00,64.5,55.7,29.68,SSE,148,5.0,13.0,73,0.00,,---,0.00,VWS V14.01,2013-10-11 09:49:00,
2013-10-11 04:50:00,64.5,55.7,29.68,SE,137,6.0,9.0,73,0.00,,---,0.00,VWS V14.01,2013-10-11 09:50:00,
2013-10-11 04:51:00,64.5,55.7,29.68,SE,142,10.0,10.0,73,0.00,,---,0.00,VWS V14.01,2013-10-11 09:51:00,
2013-10-11 04:53:00,64.5,55.7,29.68,SE,142,6.0,12.0,73,0.00,,---,0.00,VWS V14.01,2013-10-11 09:53:00,
2013-10-11 04:54:00,64.5,55.7,29.68,SE,134,6.0,12.0,73,0.00,,---,0.00,VWS V14.01,2013-10-11 09:54:00,
2013-10-11 04:55:00,64.5,56.0,29.68,SE,143,10.0,12.0,74,0.00,,---,0.00,VWS V14.01,2013-10-11 09:55:00,
2013-10-11 04:56:00,64.5,55.7,29.68,SSE,147,8.0,12.0,73,0.00,,---,0.00,VWS V14.01,2013-10-11 09:56:00,
2013-10-11 04:58:00,64.5,56.0,29.68,SE,136,6.0,12.0,74,0.00,,---,0.00,VWS V14.01,2013-10-11 09:58:00,
2013-10-11 04:59:00,64.3,55.8,29.67,SE,132,5.0,12.0,74,0.00,,---,0.00,VWS V14.01,2013-10-11 09:59:00,
2013-10-11 05:00:00,64.3,55.8,29.67,SE,128,7.0,8.0,74,0.00,,---,0.00,VWS V14.01,2013-10-11 10:00:00,
2013-10-11 05:01:00,64.3,56.6,29.67,SE,127,9.0,11.0,76,0.00,,---,0.00,VWS V14.01,2013-10-11 10:01:00,
2013-10-11 05:03:00,64.2,56.1,29.67,SE,128,7.0,11.0,75,0.00,,---,0.00,VWS V14.01,2013-10-11 10:03:00,
2013-10-11 05:04:00,64.2,56.1,29.67,SE,138,11.0,12.0,75,0.00,,---,0.00,VWS V14.01,2013-10-11 10:04:00,
2013-10-11 05:05:00,64.2,56.1,29.67,SE,128,8.0,12.0,75,0.00,,---,0.00,VWS V14.01,2013-10-11 10:05:00,
2013-10-11 05:06:00,64.2,56.1,29.67,SE,145,9.0,12.0,75,0.00,,---,0.00,VWS V14.01,2013-10-11 10:06:00,
2013-10-11 05:08:00,64.2,55.4,29.67,SE,126,5.0,12.0,73,0.00,,---,0.00,VWS V14.01,2013-10-11 10:08:00,
2013-10-11 05:09:00,64.0,55.9,29.67,SE,135,9.0,14.0,75,0.00,,---,0.00,VWS V14.01,2013-10-11 10:09:00,
2013-10-11 05:10:00,64.0,55.9,29.67,SE,132,7.0,9.0,75,0.00,,---,0.00,VWS V14.01,2013-10-11 10:10:00,
2013-10-11 05:11:00,64.0,55.9,29.67,SE,134,7.0,9.0,75,0.00,,---,0.00,VWS V14.01,2013-10-11 10:11:00,
2013-10-11 05:13:00,64.0,55.9,29.67,SE,134,5.0,11.0,75,0.00,,---,0.00,VWS V14.01,2013-10-11 10:13:00,
2013-10-11 05:14:00,64.0,55.9,29.67,SE,130,9.0,11.0,75,0.00,,---,0.00,VWS V14.01,2013-10-11 10:14:00,
2013-10-11 05:15:00,64.0,55.9,29.67,SE,144,7.0,12.0,75,0.00,,---,0.00,VWS V14.01,2013-10-11 10:15:00,
2013-10-11 05:16:00,64.0,55.9,29.67,SE,139,10.0,13.0,75,0.00,,---,0.00,VWS V14.01,2013-10-11 10:16:00,
2013-10-11 05:18:00,64.2,56.1,29.67,SE,142,5.0,13.0,75,0.00,,---,0.00,VWS V14.01,2013-10-11 10:18:00,
2013-10-11 05:19:00,64.2,56.1,29.67,SE,141,9.0,13.0,75,0.00,,---,0.00,VWS V14.01,2013-10-11 10:19:00,
2013-10-11 05:21:00,64.2,55.8,29.67,SE,138,12.0,13.0,74,0.00,,---,0.00,VWS V14.01,2013-10-11 10:21:00,
2013-10-11 05:23:00,64.3,55.8,29.67,SE,140,11.0,15.0,74,0.00,,---,0.00,VWS V14.01,2013-10-11 10:23:00,
2013-10-11 05:25:00,64.3,55.8,29.67,SE,140,11.0,15.0,74,0.00,,---,0.00,VWS V14.01,2013-10-11 10:25:00,
2013-10-11 05:26:00,64.3,55.8,29.67,SE,138,10.0,15.0,74,0.00,,---,0.00,VWS V14.01,2013-10-11 10:26:00,
2013-10-11 05:27:00,64.3,55.8,29.67,SE,135,12.0,15.0,74,0.00,,---,0.00,VWS V14.01,2013-10-11 10:27:00,
2013-10-11 05:28:00,64.3,55.5,29.67,SE,142,11.0,15.0,73,0.00,,---,0.00,VWS V14.01,2013-10-11 10:28:00,
2013-10-11 05:29:00,64.3,55.8,29.67,SE,136,11.0,15.0,74,0.00,,---,0.00,VWS V14.01,2013-10-11 10:29:00,
2013-10-11 05:31:00,64.3,55.5,29.67,SE,137,8.0,14.0,73,0.00,,---,0.00,VWS V14.01,2013-10-11 10:31:00,
2013-10-11 05:32:00,64.3,55.5,29.67,SE,131,10.0,14.0,73,0.00,,---,0.00,VWS V14.01,2013-10-11 10:32:00,
2013-10-11 05:33:00,64.3,55.8,29.67,SE,126,10.0,15.0,74,0.00,,---,0.00,VWS V14.01,2013-10-11 10:33:00,
2013-10-11 05:35:00,64.3,55.8,29.67,SE,130,9.0,15.0,74,0.00,,---,0.00,VWS V14.01,2013-10-11 10:35:00,
2013-10-11 05:36:00,64.3,55.8,29.67,SE,134,14.0,15.0,74,0.00,,---,0.00,VWS V14.01,2013-10-11 10:36:00,
2013-10-11 05:37:00,64.3,55.8,29.67,SE,134,8.0,15.0,74,0.00,,---,0.00,VWS V14.01,2013-10-11 10:37:00,
2013-10-11 05:38:00,64.3,55.8,29.67,SE,131,11.0,17.0,74,0.00,,---,0.00,VWS V14.01,2013-10-11 10:38:00,
2013-10-11 05:40:00,64.3,55.8,29.67,SE,132,10.0,17.0,74,0.00,,---,0.00,VWS V14.01,2013-10-11 10:40:00,
2013-10-11 05:41:00,64.3,55.8,29.67,SE,142,10.0,13.0,74,0.00,,---,0.00,VWS V14.01,2013-10-11 10:41:00,
2013-10-11 05:42:00,64.3,55.8,29.67,SSE,154,9.0,13.0,74,0.00,,---,0.00,VWS V14.01,2013-10-11 10:42:00,
2013-10-11 05:44:00,64.3,55.8,29.67,SE,141,10.0,16.0,74,0.00,,---,0.00,VWS V14.01,2013-10-11 10:44:00,
2013-10-11 05:45:00,64.3,55.8,29.65,SE,130,10.0,16.0,74,0.00,,---,0.00,VWS V14.01,2013-10-11 10:45:00,
2013-10-11 05:46:00,64.3,55.8,29.65,SE,136,12.0,16.0,74,0.00,,---,0.00,VWS V14.01,2013-10-11 10:46:00,
2013-10-11 05:47:00,64.3,55.8,29.65,SSE,147,5.0,16.0,74,0.00,,---,0.00,VWS V14.01,2013-10-11 10:47:00,
2013-10-11 05:49:00,64.3,55.8,29.65,SE,130,10.0,16.0,74,0.00,,---,0.00,VWS V14.01,2013-10-11 10:49:00,
2013-10-11 05:50:00,64.3,55.8,29.65,SE,136,12.0,16.0,74,0.00,,---,0.00,VWS V14.01,2013-10-11 10:50:00,
2013-10-11 05:51:00,64.3,55.8,29.65,SE,139,20.0,20.0,74,0.00,,---,0.00,VWS V14.01,2013-10-11 10:51:00,
2013-10-11 05:52:00,64.3,55.8,29.65,SSE,148,9.0,20.0,74,0.00,,---,0.00,VWS V14.01,2013-10-11 10:52:00,
2013-10-11 05:54:00,64.3,55.8,29.65,SE,140,12.0,20.0,74,0.00,,---,0.00,VWS V14.01,2013-10-11 10:54:00,
2013-10-11 05:55:00,64.3,55.8,29.65,SE,144,13.0,20.0,74,0.00,,---,0.00,VWS V14.01,2013-10-11 10:55:00,
2013-10-11 05:56:00,64.3,55.8,29.65,SE,136,14.0,20.0,74,0.00,,---,0.00,VWS V14.01,2013-10-11 10:56:00,
2013-10-11 05:57:00,64.3,55.8,29.65,SE,140,6.0,20.0,74,0.00,,---,0.00,VWS V14.01,2013-10-11 10:57:00,
2013-10-11 05:59:00,64.3,55.8,29.65,SE,139,10.0,20.0,74,0.00,,---,0.00,VWS V14.01,2013-10-11 10:59:00,
2013-10-11 06:00:00,64.5,56.0,29.65,SE,146,13.0,20.0,74,0.00,,---,0.00,VWS V14.01,2013-10-11 11:00:00,
2013-10-11 06:01:00,64.5,56.0,29.65,SE,144,10.0,14.0,74,0.00,,---,0.00,VWS V14.01,2013-10-11 11:01:00,
2013-10-11 06:02:00,64.3,55.8,29.65,SSE,156,5.0,14.0,74,0.00,,---,0.00,VWS V14.01,2013-10-11 11:02:00,
2013-10-11 06:04:00,64.3,55.8,29.65,SE,143,12.0,17.0,74,0.00,,---,0.00,VWS V14.01,2013-10-11 11:04:00,
2013-10-11 06:05:00,64.3,55.8,29.65,SE,126,11.0,17.0,74,0.00,,---,0.00,VWS V14.01,2013-10-11 11:05:00,
2013-10-11 06:06:00,64.3,55.8,29.65,SE,132,12.0,17.0,74,0.00,,---,0.00,VWS V14.01,2013-10-11 11:06:00,
2013-10-11 06:07:00,64.3,55.8,29.65,SE,138,11.0,17.0,74,0.00,,---,0.00,VWS V14.01,2013-10-11 11:07:00,
2013-10-11 06:09:00,64.3,56.2,29.65,SSE,148,13.0,17.0,75,0.00,,---,0.00,VWS V14.01,2013-10-11 11:09:00,
2013-10-11 06:10:00,64.3,56.2,29.65,SE,144,12.0,17.0,75,0.00,,---,0.00,VWS V14.01,2013-10-11 11:10:00,
2013-10-11 06:11:00,64.3,56.2,29.65,SE,128,9.0,14.0,75,0.00,,---,0.00,VWS V14.01,2013-10-11 11:11:00,
2013-10-11 06:12:00,64.3,56.2,29.65,SE,140,10.0,15.0,75,0.00,,---,0.00,VWS V14.01,2013-10-11 11:12:00,
2013-10-11 06:14:00,64.2,56.1,29.65,SE,131,13.0,16.0,75,0.00,,---,0.00,VWS V14.01,2013-10-11 11:14:00,
2013-10-11 06:15:00,64.2,56.1,29.65,SE,140,14.0,16.0,75,0.00,,---,0.00,VWS V14.01,2013-10-11 11:15:00,
2013-10-11 06:17:00,64.2,56.1,29.65,SE,135,11.0,18.0,75,0.00,,---,0.00,VWS V14.01,2013-10-11 11:17:00,
2013-10-11 06:19:00,64.2,56.1,29.65,SE,144,11.0,18.0,75,0.00,,---,0.00,VWS V14.01,2013-10-11 11:19:00,
2013-10-11 06:20:00,64.2,56.1,29.65,SE,140,10.0,11.0,75,0.00,,---,0.00,VWS V14.01,2013-10-11 11:20:00,
2013-10-11 06:22:00,64.2,56.1,29.65,SSE,153,4.0,11.0,75,0.00,,---,0.00,VWS V14.01,2013-10-11 11:22:00,
2013-10-11 06:23:00,64.2,56.1,29.65,SE,146,6.0,11.0,75,0.00,,---,0.00,VWS V14.01,2013-10-11 11:23:00,
2013-10-11 06:24:00,64.0,56.3,29.65,SSE,157,5.0,13.0,76,0.00,,---,0.00,VWS V14.01,2013-10-11 11:24:00,
2013-10-11 06:25:00,64.0,56.3,29.65,SSE,151,5.0,13.0,76,0.00,,---,0.00,VWS V14.01,2013-10-11 11:25:00,
2013-10-11 06:27:00,64.2,56.5,29.65,SSE,150,11.0,17.0,76,0.00,,---,0.00,VWS V14.01,2013-10-11 11:27:00,
2013-10-11 06:28:00,64.0,56.3,29.65,SSE,152,7.0,17.0,76,0.00,,---,0.00,VWS V14.01,2013-10-11 11:28:00,
2013-10-11 06:29:00,64.0,56.3,29.65,SSE,157,4.0,17.0,76,0.00,,---,0.00,VWS V14.01,2013-10-11 11:29:00,
2013-10-11 06:30:00,64.0,56.3,29.64,SSE,152,10.0,12.0,76,0.00,,---,0.00,VWS V14.01,2013-10-11 11:30:00,
2013-10-11 06:32:00,64.0,56.3,29.64,SSE,153,7.0,18.0,76,0.00,,---,0.00,VWS V14.01,2013-10-11 11:32:00,
2013-10-11 06:33:00,64.0,56.3,29.64,SSE,148,11.0,18.0,76,0.00,,---,0.00,VWS V14.01,2013-10-11 11:33:00,
2013-10-11 06:34:00,64.0,56.3,29.64,SSE,153,6.0,18.0,76,0.00,,---,0.00,VWS V14.01,2013-10-11 11:34:00,
2013-10-11 06:35:00,64.0,56.3,29.64,SSE,149,5.0,18.0,76,0.00,,---,0.00,VWS V14.01,2013-10-11 11:35:00,
2013-10-11 06:37:00,64.0,56.3,29.64,SSE,147,5.0,18.0,76,0.00,,---,0.00,VWS V14.01,2013-10-11 11:37:00,
2013-10-11 06:38:00,64.0,56.3,29.64,SSE,147,7.0,18.0,76,0.00,,---,0.00,VWS V14.01,2013-10-11 11:38:00,
2013-10-11 06:39:00,64.0,56.3,29.64,South,170,4.0,18.0,76,0.00,,---,0.00,VWS V14.01,2013-10-11 11:39:00,
2013-10-11 06:40:00,64.0,56.3,29.64,SSE,149,9.0,10.0,76,0.00,,---,0.00,VWS V14.01,2013-10-11 11:40:00,
2013-10-11 06:42:00,64.0,56.3,29.64,SE,145,5.0,16.0,76,0.00,,---,0.00,VWS V14.01,2013-10-11 11:42:00,
2013-10-11 06:43:00,64.0,56.3,29.64,SSE,159,5.0,16.0,76,0.00,,---,0.00,VWS V14.01,2013-10-11 11:43:00,
2013-10-11 06:44:00,64.0,56.3,29.64,SSE,160,13.0,16.0,76,0.00,,---,0.00,VWS V14.01,2013-10-11 11:44:00,
2013-10-11 06:45:00,64.0,56.3,29.64,SSE,154,6.0,16.0,76,0.00,,---,0.00,VWS V14.01,2013-10-11 11:45:00,
2013-10-11 06:48:00,64.0,56.3,29.64,SSE,148,6.0,16.0,76,0.00,,---,0.00,VWS V14.01,2013-10-11 11:48:00,
2013-10-11 06:49:00,64.0,56.3,29.64,SSE,153,6.0,16.0,76,0.00,,---,0.00,VWS V14.01,2013-10-11 11:49:00,
2013-10-11 06:50:00,64.0,56.3,29.64,SSE,150,6.0,6.0,76,0.00,,---,0.00,VWS V14.01,2013-10-11 11:50:00,
2013-10-11 06:53:00,64.0,56.3,29.64,SSE,149,4.0,14.0,76,0.00,,---,0.00,VWS V14.01,2013-10-11 11:53:00,
2013-10-11 06:54:00,64.0,56.3,29.64,SSE,159,7.0,14.0,76,0.00,,---,0.00,VWS V14.01,2013-10-11 11:54:00,
2013-10-11 06:55:00,64.0,56.3,29.64,SSE,158,4.0,14.0,76,0.00,,---,0.00,VWS V14.01,2013-10-11 11:55:00,
2013-10-11 06:58:00,64.2,56.5,29.64,SSE,155,6.0,14.0,76,0.00,,---,0.00,VWS V14.01,2013-10-11 11:58:00,
2013-10-11 06:59:00,64.2,56.5,29.64,SSE,155,10.0,14.0,76,0.00,,---,0.00,VWS V14.01,2013-10-11 11:59:00,
2013-10-11 07:00:00,64.2,56.5,29.64,SSE,149,6.0,7.0,76,0.00,,---,0.00,VWS V14.01,2013-10-11 12:00:00,
2013-10-11 07:03:00,64.2,56.5,29.64,SSE,153,6.0,15.0,76,0.00,,---,0.00,VWS V14.01,2013-10-11 12:03:00,
2013-10-11 07:04:00,64.2,56.5,29.64,SSE,151,2.0,15.0,76,0.00,,---,0.00,VWS V14.01,2013-10-11 12:04:00,
2013-10-11 07:05:00,64.2,56.5,29.64,SE,144,13.0,16.0,76,0.00,,---,0.00,VWS V14.01,2013-10-11 12:05:00,
2013-10-11 07:08:00,64.2,56.5,29.64,SSE,151,12.0,17.0,76,0.00,,---,0.00,VWS V14.01,2013-10-11 12:08:00,
2013-10-11 07:09:00,64.2,56.5,29.64,SSE,148,11.0,17.0,76,0.00,,---,0.00,VWS V14.01,2013-10-11 12:09:00,
2013-10-11 07:11:00,64.2,56.5,29.64,SE,145,17.0,17.0,76,0.00,,---,0.00,VWS V14.01,2013-10-11 12:11:00,
2013-10-11 07:13:00,64.2,56.5,29.64,SSE,148,10.0,17.0,76,0.00,,---,0.00,VWS V14.01,2013-10-11 12:13:00,
2013-10-11 07:14:00,64.2,56.5,29.64,SSE,148,10.0,17.0,76,0.00,,---,0.00,VWS V14.01,2013-10-11 12:14:00,
2013-10-11 07:16:00,64.0,56.3,29.64,SSE,148,12.0,17.0,76,0.00,,---,0.00,VWS V14.01,2013-10-11 12:16:00,
2013-10-11 07:18:00,64.0,56.3,29.64,SSE,147,6.0,17.0,76,0.00,,---,0.00,VWS V14.01,2013-10-11 12:18:00,
2013-10-11 07:19:00,64.0,56.7,29.64,SSE,148,6.0,17.0,77,0.00,,---,0.00,VWS V14.01,2013-10-11 12:19:00,
2013-10-11 07:20:00,64.0,56.7,29.64,SE,145,6.0,17.0,77,0.00,,---,0.00,VWS V14.01,2013-10-11 12:20:00,
2013-10-11 07:21:00,64.0,56.7,29.64,SE,144,4.0,10.0,77,0.00,,---,0.00,VWS V14.01,2013-10-11 12:21:00,
2013-10-11 07:23:00,63.9,56.6,29.64,SE,142,10.0,17.0,77,0.00,,---,0.00,VWS V14.01,2013-10-11 12:23:00,
2013-10-11 07:24:00,64.0,56.7,29.64,SE,138,4.0,17.0,77,0.00,,---,0.00,VWS V14.01,2013-10-11 12:24:00,
2013-10-11 07:25:00,64.0,56.7,29.64,SE,146,11.0,17.0,77,0.00,,---,0.00,VWS V14.01,2013-10-11 12:25:00,
2013-10-11 07:26:00,64.0,56.7,29.64,SSE,150,3.0,17.0,77,0.00,,---,0.00,VWS V14.01,2013-10-11 12:26:00,
2013-10-11 07:28:00,63.9,56.6,29.64,SE,146,5.0,17.0,77,0.00,,---,0.00,VWS V14.01,2013-10-11 12:28:00,
2013-10-11 07:29:00,63.9,56.6,29.64,SE,140,15.0,18.0,77,0.00,,---,0.00,VWS V14.01,2013-10-11 12:29:00,
2013-10-11 07:30:00,63.9,56.6,29.64,SSE,148,12.0,18.0,77,0.00,,---,0.00,VWS V14.01,2013-10-11 12:30:00,
2013-10-11 07:31:00,63.9,56.6,29.64,SSE,148,14.0,16.0,77,0.00,,---,0.00,VWS V14.01,2013-10-11 12:31:00,
2013-10-11 07:33:00,63.9,56.6,29.64,SSE,153,11.0,20.0,77,0.00,,---,0.00,VWS V14.01,2013-10-11 12:33:00,
2013-10-11 07:35:00,63.9,56.6,29.64,SSE,155,10.0,20.0,77,0.00,,---,0.00,VWS V14.01,2013-10-11 12:35:00,
2013-10-11 07:36:00,63.9,56.6,29.64,SSE,148,5.0,20.0,77,0.00,,---,0.00,VWS V14.01,2013-10-11 12:36:00,
2013-10-11 07:38:00,63.9,56.6,29.64,SSE,148,2.0,20.0,77,0.00,,---,0.00,VWS V14.01,2013-10-11 12:38:00,
2013-10-11 07:40:00,63.9,56.6,29.64,SE,145,10.0,20.0,77,0.00,,---,0.00,VWS V14.01,2013-10-11 12:40:00,
2013-10-11 07:41:00,63.9,56.6,29.64,SSE,150,12.0,15.0,77,0.00,,---,0.00,VWS V14.01,2013-10-11 12:41:00,
2013-10-11 07:43:00,63.9,56.9,29.64,SSE,152,4.0,15.0,78,0.00,,---,0.00,VWS V14.01,2013-10-11 12:43:00,
2013-10-11 07:44:00,63.7,56.7,29.63,SSE,149,13.0,15.0,78,0.00,,---,0.00,VWS V14.01,2013-10-11 12:44:00,
2013-10-11 07:45:00,63.7,56.7,29.63,SSE,151,9.0,15.0,78,0.00,,---,0.00,VWS V14.01,2013-10-11 12:45:00,
2013-10-11 07:46:00,63.7,56.7,29.63,SSE,151,4.0,15.0,78,0.00,,---,0.00,VWS V14.01,2013-10-11 12:46:00,
2013-10-11 07:48:00,63.7,56.7,29.63,SSE,150,11.0,15.0,78,0.00,,---,0.00,VWS V14.01,2013-10-11 12:48:00,
2013-10-11 07:50:00,63.7,56.7,29.63,SE,140,6.0,15.0,78,0.00,,---,0.00,VWS V14.01,2013-10-11 12:50:00,
2013-10-11 07:51:00,63.7,56.7,29.63,SSE,155,4.0,17.0,78,0.00,,---,0.00,VWS V14.01,2013-10-11 12:51:00,
2013-10-11 07:53:00,63.7,56.7,29.63,SSE,153,3.0,17.0,78,0.00,,---,0.00,VWS V14.01,2013-10-11 12:53:00,
2013-10-11 07:55:00,63.7,56.7,29.63,SSE,154,6.0,17.0,78,0.00,,---,0.00,VWS V14.01,2013-10-11 12:55:00,
2013-10-11 07:56:00,63.7,56.7,29.63,SSE,155,4.0,17.0,78,0.00,,---,0.00,VWS V14.01,2013-10-11 12:56:00,
2013-10-11 07:58:00,63.9,56.9,29.63,SSE,161,9.0,18.0,78,0.00,,---,0.00,VWS V14.01,2013-10-11 12:58:00,
2013-10-11 08:00:00,63.9,56.9,29.64,SSE,149,3.0,18.0,78,0.00,,---,0.00,VWS V14.01,2013-10-11 13:00:00,
2013-10-11 08:01:00,63.9,56.9,29.64,SSE,148,11.0,14.0,78,0.00,,---,0.00,VWS V14.01,2013-10-11 13:01:00,
2013-10-11 08:03:00,63.9,56.9,29.64,SSE,149,3.0,14.0,78,0.00,,---,0.00,VWS V14.01,2013-10-11 13:03:00,
2013-10-11 08:05:00,64.0,57.0,29.64,SE,145,12.0,16.0,78,0.00,,---,0.00,VWS V14.01,2013-10-11 13:05:00,
2013-10-11 08:06:00,64.0,57.0,29.64,SSE,150,10.0,16.0,78,0.00,,---,0.00,VWS V14.01,2013-10-11 13:06:00,
2013-10-11 08:09:00,64.0,57.0,29.64,South,180,11.0,16.0,78,0.00,,---,0.00,VWS V14.01,2013-10-11 13:09:00,
2013-10-11 08:10:00,64.2,57.2,29.64,SSE,155,3.0,16.0,78,0.00,,---,0.00,VWS V14.01,2013-10-11 13:10:00,
2013-10-11 08:11:00,64.2,57.2,29.64,SSE,159,8.0,11.0,78,0.00,,---,0.00,VWS V14.01,2013-10-11 13:11:00,
2013-10-11 08:14:00,64.2,57.2,29.64,SSE,157,3.0,12.0,78,0.00,,---,0.00,VWS V14.01,2013-10-11 13:14:00,
2013-10-11 08:15:00,64.2,57.2,29.64,SSW,193,3.0,15.0,78,0.00,,---,0.00,VWS V14.01,2013-10-11 13:15:00,
2013-10-11 08:16:00,64.3,57.3,29.64,SE,145,13.0,15.0,78,0.00,,---,0.00,VWS V14.01,2013-10-11 13:16:00,
2013-10-11 08:19:00,64.3,57.3,29.64,South,171,4.0,15.0,78,0.00,,---,0.00,VWS V14.01,2013-10-11 13:19:00,
2013-10-11 08:20:00,64.3,57.3,29.64,South,173,5.0,15.0,78,0.00,,---,0.00,VWS V14.01,2013-10-11 13:20:00,
2013-10-11 08:21:00,64.3,57.3,29.64,SSE,148,3.0,7.0,78,0.00,,---,0.00,VWS V14.01,2013-10-11 13:21:00,
2013-10-11 08:24:00,64.3,57.3,29.64,SSE,148,9.0,12.0,78,0.00,,---,0.00,VWS V14.01,2013-10-11 13:24:00,
2013-10-11 08:25:00,64.3,57.3,29.64,SW,215,6.0,12.0,78,0.00,,---,0.00,VWS V14.01,2013-10-11 13:25:00,
2013-10-11 08:26:00,64.3,57.3,29.64,SSE,152,5.0,12.0,78,0.00,,---,0.00,VWS V14.01,2013-10-11 13:26:00,
2013-10-11 08:29:00,64.3,57.3,29.64,South,182,8.0,12.0,78,0.00,,---,0.00,VWS V14.01,2013-10-11 13:29:00,
2013-10-11 08:30:00,64.3,57.3,29.65,South,188,5.0,12.0,78,0.00,,---,0.00,VWS V14.01,2013-10-11 13:30:00,
2013-10-11 08:31:00,64.5,57.5,29.65,SE,136,4.0,7.0,78,0.00,,---,0.00,VWS V14.01,2013-10-11 13:31:00,
2013-10-11 08:32:00,64.5,57.5,29.65,SE,144,7.0,7.0,78,0.00,,---,0.00,VWS V14.01,2013-10-11 13:32:00,
2013-10-11 08:34:00,64.5,57.5,29.65,SSE,157,6.0,11.0,78,0.00,,---,0.00,VWS V14.01,2013-10-11 13:34:00,
2013-10-11 08:35:00,64.7,57.3,29.65,South,175,5.0,11.0,77,0.00,,---,0.00,VWS V14.01,2013-10-11 13:35:00,
2013-10-11 08:36:00,64.7,57.3,29.65,SE,141,5.0,11.0,77,0.00,,---,0.00,VWS V14.01,2013-10-11 13:36:00,
2013-10-11 08:37:00,64.7,57.3,29.65,SSE,157,4.0,11.0,77,0.00,,---,0.00,VWS V14.01,2013-10-11 13:37:00,
2013-10-11 08:39:00,64.8,57.4,29.65,South,175,3.0,16.0,77,0.00,,---,0.00,VWS V14.01,2013-10-11 13:39:00,
2013-10-11 08:40:00,64.8,57.4,29.65,South,177,3.0,4.0,77,0.00,,---,0.00,VWS V14.01,2013-10-11 13:40:00,
2013-10-11 08:41:00,64.8,57.4,29.65,SSE,151,4.0,7.0,77,0.00,,---,0.00,VWS V14.01,2013-10-11 13:41:00,
2013-10-11 08:42:00,65.0,57.6,29.65,SSE,163,7.0,9.0,77,0.00,,---,0.00,VWS V14.01,2013-10-11 13:42:00,
2013-10-11 08:44:00,65.0,57.6,29.65,SSE,158,5.0,12.0,77,0.00,,---,0.00,VWS V14.01,2013-10-11 13:44:00,
2013-10-11 08:45:00,65.2,57.8,29.65,SSE,148,4.0,12.0,77,0.00,,---,0.00,VWS V14.01,2013-10-11 13:45:00,
2013-10-11 08:46:00,65.2,57.8,29.65,SSE,148,5.0,13.0,77,0.00,,---,0.00,VWS V14.01,2013-10-11 13:46:00,
2013-10-11 08:47:00,65.2,57.8,29.65,SSE,147,6.0,14.0,77,0.00,,---,0.00,VWS V14.01,2013-10-11 13:47:00,
2013-10-11 08:49:00,65.3,57.9,29.65,South,176,2.0,14.0,77,0.00,,---,0.00,VWS V14.01,2013-10-11 13:49:00,
2013-10-11 08:50:00,65.3,57.9,29.65,SSE,166,5.0,14.0,77,0.00,,---,0.00,VWS V14.01,2013-10-11 13:50:00,
2013-10-11 08:51:00,65.3,57.5,29.65,South,184,7.0,13.0,76,0.00,,---,0.00,VWS V14.01,2013-10-11 13:51:00,
2013-10-11 08:52:00,65.3,57.5,29.65,South,184,6.0,13.0,76,0.00,,---,0.00,VWS V14.01,2013-10-11 13:52:00,
2013-10-11 08:54:00,65.5,57.7,29.65,SSE,155,3.0,13.0,76,0.00,,---,0.00,VWS V14.01,2013-10-11 13:54:00,
2013-10-11 08:55:00,65.5,57.7,29.65,SSW,193,14.0,14.0,76,0.00,,---,0.00,VWS V14.01,2013-10-11 13:55:00,
2013-10-11 08:56:00,65.5,57.7,29.65,South,174,3.0,14.0,76,0.00,,---,0.00,VWS V14.01,2013-10-11 13:56:00,
2013-10-11 08:57:00,65.5,57.7,29.65,SSE,159,3.0,14.0,76,0.00,,---,0.00,VWS V14.01,2013-10-11 13:57:00,
2013-10-11 08:59:00,65.6,58.2,29.66,SSE,162,4.0,14.0,77,0.00,,---,0.00,VWS V14.01,2013-10-11 13:59:00,
2013-10-11 09:00:00,65.6,58.2,29.66,SE,143,7.0,14.0,77,0.00,,---,0.00,VWS V14.01,2013-10-11 14:00:00,
2013-10-11 09:01:00,65.6,58.2,29.66,South,180,5.0,9.0,77,0.00,,---,0.00,VWS V14.01,2013-10-11 14:01:00,
2013-10-11 09:02:00,65.8,58.0,29.66,SSE,158,5.0,9.0,76,0.00,,---,0.00,VWS V14.01,2013-10-11 14:02:00,
2013-10-11 09:05:00,66.1,58.3,29.66,South,171,5.0,16.0,76,0.00,,---,0.00,VWS V14.01,2013-10-11 14:05:00,
2013-10-11 09:07:00,66.3,58.5,29.66,South,188,9.0,16.0,76,0.00,,---,0.00,VWS V14.01,2013-10-11 14:07:00,
2013-10-11 09:10:00,66.6,58.4,29.66,South,188,9.0,16.0,75,0.00,,---,0.00,VWS V14.01,2013-10-11 14:10:00,
2013-10-11 09:11:00,66.6,58.4,29.66,South,172,4.0,11.0,75,0.00,,---,0.00,VWS V14.01,2013-10-11 14:11:00,
2013-10-11 09:12:00,66.8,58.6,29.66,South,188,9.0,15.0,75,0.00,,---,0.00,VWS V14.01,2013-10-11 14:12:00,
2013-10-11 09:15:00,67.1,58.5,29.66,South,176,9.0,22.0,74,0.00,,---,0.00,VWS V14.01,2013-10-11 14:15:00,
2013-10-11 09:16:00,67.3,58.7,29.66,South,188,8.0,22.0,74,0.00,,---,0.00,VWS V14.01,2013-10-11 14:16:00,
2013-10-11 09:17:00,67.4,58.8,29.66,SSW,192,8.0,22.0,74,0.00,,---,0.00,VWS V14.01,2013-10-11 14:17:00,
2013-10-11 09:20:00,67.8,58.8,29.66,South,190,13.0,22.0,73,0.00,,---,0.00,VWS V14.01,2013-10-11 14:20:00,
2013-10-11 09:21:00,67.8,58.8,29.66,South,187,15.0,19.0,73,0.00,,---,0.00,VWS V14.01,2013-10-11 14:21:00,
2013-10-11 09:22:00,67.9,58.9,29.66,SSW,194,12.0,25.0,73,0.00,,---,0.00,VWS V14.01,2013-10-11 14:22:00,
2013-10-11 09:23:00,67.9,58.9,29.66,South,191,14.0,25.0,73,0.00,,---,0.00,VWS V14.01,2013-10-11 14:23:00,
2013-10-11 09:25:00,68.1,58.7,29.66,SSW,193,12.0,25.0,72,0.00,,---,0.00,VWS V14.01,2013-10-11 14:25:00,
2013-10-11 09:26:00,68.1,58.7,29.66,South,184,6.0,25.0,72,0.00,,---,0.00,VWS V14.01,2013-10-11 14:26:00,
2013-10-11 09:27:00,68.3,59.3,29.66,SSW,193,11.0,25.0,73,0.00,,---,0.00,VWS V14.01,2013-10-11 14:27:00,
2013-10-11 09:28:00,68.3,58.9,29.66,South,184,11.0,25.0,72,0.00,,---,0.00,VWS V14.01,2013-10-11 14:28:00,
2013-10-11 09:30:00,68.4,59.0,29.66,SSW,201,11.0,25.0,72,0.00,,---,0.00,VWS V14.01,2013-10-11 14:30:00,
2013-10-11 09:31:00,68.4,59.0,29.66,WSW,238,21.0,21.0,72,0.00,,---,0.00,VWS V14.01,2013-10-11 14:31:00,
2013-10-11 09:32:00,68.4,58.2,29.66,South,188,9.0,21.0,70,0.00,,---,0.00,VWS V14.01,2013-10-11 14:32:00,
2013-10-11 09:33:00,68.4,59.0,29.66,SSW,197,15.0,21.0,72,0.00,,---,0.00,VWS V14.01,2013-10-11 14:33:00,
2013-10-11 09:35:00,68.4,58.6,29.66,SSW,193,11.0,21.0,71,0.00,,---,0.00,VWS V14.01,2013-10-11 14:35:00,
2013-10-11 09:36:00,68.4,59.0,29.66,South,187,12.0,21.0,72,0.00,,---,0.00,VWS V14.01,2013-10-11 14:36:00,
2013-10-11 09:37:00,68.4,59.0,29.66,South,180,11.0,21.0,72,0.00,,---,0.00,VWS V14.01,2013-10-11 14:37:00,
2013-10-11 09:38:00,68.6,58.8,29.66,South,185,13.0,22.0,71,0.00,,---,0.00,VWS V14.01,2013-10-11 14:38:00,
2013-10-11 09:40:00,68.6,58.8,29.66,South,184,11.0,22.0,71,0.00,,---,0.00,VWS V14.01,2013-10-11 14:40:00,
2013-10-11 09:41:00,68.6,58.8,29.66,SSW,193,16.0,16.0,71,0.00,,---,0.00,VWS V14.01,2013-10-11 14:41:00,
2013-10-11 09:42:00,68.6,58.8,29.66,SSW,194,12.0,18.0,71,0.00,,---,0.00,VWS V14.01,2013-10-11 14:42:00,
2013-10-11 09:43:00,68.6,58.8,29.66,South,186,12.0,23.0,71,0.00,,---,0.00,VWS V14.01,2013-10-11 14:43:00,
2013-10-11 09:45:00,68.6,58.8,29.66,SSW,194,12.0,23.0,71,0.00,,---,0.00,VWS V14.01,2013-10-11 14:45:00,
2013-10-11 09:46:00,68.6,58.8,29.66,SSW,195,16.0,23.0,71,0.00,,---,0.00,VWS V14.01,2013-10-11 14:46:00,
2013-10-11 09:47:00,68.8,59.0,29.66,SSW,201,18.0,23.0,71,0.00,,---,0.00,VWS V14.01,2013-10-11 14:47:00,
2013-10-11 09:48:00,68.6,58.8,29.66,SSW,200,14.0,23.0,71,0.00,,---,0.00,VWS V14.01,2013-10-11 14:48:00,
2013-10-11 09:50:00,68.6,58.4,29.66,SSW,197,18.0,28.0,70,0.00,,---,0.00,VWS V14.01,2013-10-11 14:50:00,
2013-10-11 09:51:00,68.6,58.4,29.66,SSW,203,12.0,25.0,70,0.00,,---,0.00,VWS V14.01,2013-10-11 14:51:00,
2013-10-11 09:52:00,68.6,58.4,29.66,SSW,200,17.0,25.0,70,0.00,,---,0.00,VWS V14.01,2013-10-11 14:52:00,
2013-10-11 09:53:00,68.8,59.0,29.66,SSW,197,12.0,25.0,71,0.00,,---,0.00,VWS V14.01,2013-10-11 14:53:00,
2013-10-11 09:55:00,68.8,59.0,29.66,SSW,205,14.0,25.0,71,0.00,,---,0.00,VWS V14.01,2013-10-11 14:55:00,
2013-10-11 09:56:00,68.8,58.6,29.66,SSW,195,14.0,25.0,70,0.00,,---,0.00,VWS V14.01,2013-10-11 14:56:00,
2013-10-11 09:57:00,68.8,59.0,29.66,South,174,9.0,25.0,71,0.00,,---,0.00,VWS V14.01,2013-10-11 14:57:00,
2013-10-11 09:58:00,68.9,58.7,29.66,SSW,194,11.0,25.0,70,0.00,,---,0.00,VWS V14.01,2013-10-11 14:58:00,
2013-10-11 10:00:00,68.9,58.7,29.66,South,187,15.0,15.0,70,0.00,,---,0.00,VWS V14.01,2013-10-11 15:00:00,
2013-10-11 10:01:00,68.9,58.7,29.66,South,183,11.0,19.0,70,0.00,,---,0.00,VWS V14.01,2013-10-11 15:01:00,
2013-10-11 10:02:00,68.9,58.7,29.66,SSW,194,20.0,20.0,70,0.00,,---,0.00,VWS V14.01,2013-10-11 15:02:00,
2013-10-11 10:03:00,69.1,58.5,29.66,SSW,197,14.0,20.0,69,0.00,,---,0.00,VWS V14.01,2013-10-11 15:03:00,
2013-10-11 10:04:00,69.1,58.5,29.66,SSW,198,12.0,21.0,69,0.00,,---,0.00,VWS V14.01,2013-10-11 15:04:00,
2013-10-11 10:05:00,69.1,58.9,29.66,SSW,200,14.0,21.0,70,0.00,,---,0.00,VWS V14.01,2013-10-11 15:05:00,
2013-10-11 10:06:00,69.1,58.5,29.66,South,186,17.0,23.0,69,0.00,,---,0.00,VWS V14.01,2013-10-11 15:06:00,
2013-10-11 10:07:00,69.1,58.5,29.66,SSW,207,14.0,23.0,69,0.00,,---,0.00,VWS V14.01,2013-10-11 15:07:00,
2013-10-11 10:08:00,69.1,58.5,29.66,SSW,203,14.0,23.0,69,0.00,,---,0.00,VWS V14.01,2013-10-11 15:08:00,
2013-10-11 10:09:00,69.1,58.5,29.66,SSW,211,14.0,23.0,69,0.00,,---,0.00,VWS V14.01,2013-10-11 15:09:00,
2013-10-11 10:10:00,69.1,58.5,29.66,South,191,17.0,20.0,69,0.00,,---,0.00,VWS V14.01,2013-10-11 15:10:00,
2013-10-11 10:11:00,69.1,58.5,29.66,South,184,17.0,20.0,69,0.00,,---,0.00,VWS V14.01,2013-10-11 15:11:00,
2013-10-11 10:12:00,68.9,57.9,29.66,South,191,14.0,20.0,68,0.00,,---,0.00,VWS V14.01,2013-10-11 15:12:00,
2013-10-11 10:13:00,69.1,58.5,29.66,SSW,197,8.0,20.0,69,0.00,,---,0.00,VWS V14.01,2013-10-11 15:13:00,
2013-10-11 10:14:00,69.3,58.7,29.67,SSW,196,15.0,20.0,69,0.00,,---,0.00,VWS V14.01,2013-10-11 15:14:00,
2013-10-11 10:15:00,69.3,58.7,29.67,South,173,15.0,20.0,69,0.00,,---,0.00,VWS V14.01,2013-10-11 15:15:00,
2013-10-11 10:16:00,69.3,58.7,29.67,SSW,207,22.0,23.0,69,0.00,,---,0.00,VWS V14.01,2013-10-11 15:16:00,
2013-10-11 10:17:00,69.3,58.3,29.67,SSW,198,14.0,23.0,68,0.00,,---,0.00,VWS V14.01,2013-10-11 15:17:00,
2013-10-11 10:18:00,69.3,58.7,29.67,South,190,13.0,23.0,69,0.00,,---,0.00,VWS V14.01,2013-10-11 15:18:00,
2013-10-11 10:19:00,69.3,58.3,29.67,SSW,201,15.0,26.0,68,0.00,,---,0.00,VWS V14.01,2013-10-11 15:19:00,
2013-10-11 10:20:00,69.3,58.3,29.67,SSW,202,18.0,23.0,68,0.00,,---,0.00,VWS V14.01,2013-10-11 15:20:00,
2013-10-11 10:21:00,69.3,58.3,29.67,SSW,205,13.0,23.0,68,0.00,,---,0.00,VWS V14.01,2013-10-11 15:21:00,
2013-10-11 10:22:00,69.3,58.3,29.67,South,190,15.0,23.0,68,0.00,,---,0.00,VWS V14.01,2013-10-11 15:22:00,
2013-10-11 10:23:00,69.3,58.3,29.67,South,187,17.0,23.0,68,0.00,,---,0.00,VWS V14.01,2013-10-11 15:23:00,
2013-10-11 10:24:00,69.4,58.4,29.67,SSW,201,9.0,23.0,68,0.00,,---,0.00,VWS V14.01,2013-10-11 15:24:00,
2013-10-11 10:26:00,69.6,58.6,29.67,SSW,198,17.0,23.0,68,0.00,,---,0.00,VWS V14.01,2013-10-11 15:26:00,
2013-10-11 10:28:00,69.6,58.2,29.67,SSW,198,13.0,23.0,67,0.00,,---,0.00,VWS V14.01,2013-10-11 15:28:00,
2013-10-11 10:29:00,69.6,57.8,29.66,SSW,207,9.0,23.0,66,0.00,,---,0.00,VWS V14.01,2013-10-11 15:29:00,
2013-10-11 10:31:00,69.8,57.9,29.66,SSW,198,9.0,12.0,66,0.00,,---,0.00,VWS V14.01,2013-10-11 15:31:00,
2013-10-11 10:32:00,69.8,57.5,29.66,SSW,209,8.0,12.0,65,0.00,,---,0.00,VWS V14.01,2013-10-11 15:32:00,
2013-10-11 10:33:00,69.8,57.5,29.66,SSW,210,12.0,17.0,65,0.00,,---,0.00,VWS V14.01,2013-10-11 15:33:00,
2013-10-11 10:35:00,69.8,57.1,29.66,SW,217,12.0,17.0,64,0.00,,---,0.00,VWS V14.01,2013-10-11 15:35:00,
2013-10-11 10:36:00,69.9,57.6,29.66,SW,221,9.0,17.0,65,0.00,,---,0.00,VWS V14.01,2013-10-11 15:36:00,
2013-10-11 10:37:00,69.9,57.6,29.66,SSW,207,6.0,17.0,65,0.00,,---,0.00,VWS V14.01,2013-10-11 15:37:00,
2013-10-11 10:38:00,69.9,56.8,29.66,South,190,10.0,17.0,63,0.00,,---,0.00,VWS V14.01,2013-10-11 15:38:00,
2013-10-11 10:40:00,70.1,57.4,29.66,SSW,200,10.0,21.0,64,0.00,,---,0.00,VWS V14.01,2013-10-11 15:40:00,
2013-10-11 10:41:00,70.3,57.1,29.66,SSW,207,7.0,23.0,63,0.00,,---,0.00,VWS V14.01,2013-10-11 15:41:00,
2013-10-11 10:42:00,70.3,57.1,29.66,SSW,196,6.0,23.0,63,0.00,,---,0.00,VWS V14.01,2013-10-11 15:42:00,
2013-10-11 10:43:00,70.4,57.2,29.66,SW,214,10.0,23.0,63,0.00,,---,0.00,VWS V14.01,2013-10-11 15:43:00,
2013-10-11 10:44:00,70.4,56.8,29.66,SW,236,11.0,23.0,62,0.00,,---,0.00,VWS V14.01,2013-10-11 15:44:00,
2013-10-11 10:45:00,70.4,56.3,29.67,SSW,202,5.0,23.0,61,0.00,,---,0.00,VWS V14.01,2013-10-11 15:45:00,
2013-10-11 10:46:00,70.4,55.9,29.67,SSW,207,8.0,23.0,60,0.00,,---,0.00,VWS V14.01,2013-10-11 15:46:00,
2013-10-11 10:47:00,70.6,55.1,29.67,SSW,213,8.0,23.0,58,0.00,,---,0.00,VWS V14.01,2013-10-11 15:47:00,
2013-10-11 10:48:00,70.4,54.5,29.67,SSW,207,9.0,23.0,57,0.00,,---,0.00,VWS V14.01,2013-10-11 15:48:00,
2013-10-11 10:49:00,70.6,55.1,29.67,SSW,209,9.0,23.0,58,0.00,,---,0.00,VWS V14.01,2013-10-11 15:49:00,
2013-10-11 10:50:00,70.8,55.3,29.67,SW,226,10.0,10.0,58,0.00,,---,0.00,VWS V14.01,2013-10-11 15:50:00,
2013-10-11 10:51:00,70.8,55.3,29.67,SSW,208,6.0,12.0,58,0.00,,---,0.00,VWS V14.01,2013-10-11 15:51:00,
2013-10-11 10:52:00,70.9,55.4,29.67,SW,228,12.0,12.0,58,0.00,,---,0.00,VWS V14.01,2013-10-11 15:52:00,
2013-10-11 10:53:00,70.9,54.9,29.67,SW,234,12.0,12.0,57,0.00,,---,0.00,VWS V14.01,2013-10-11 15:53:00,
2013-10-11 10:54:00,70.9,55.4,29.67,SSW,211,6.0,14.0,58,0.00,,---,0.00,VWS V14.01,2013-10-11 15:54:00,
2013-10-11 10:55:00,70.9,54.9,29.67,SW,214,5.0,14.0,57,0.00,,---,0.00,VWS V14.01,2013-10-11 15:55:00,
2013-10-11 10:56:00,71.1,55.1,29.67,SSW,209,6.0,14.0,57,0.00,,---,0.00,VWS V14.01,2013-10-11 15:56:00,
2013-10-11 10:57:00,71.1,55.1,29.67,SSW,213,7.0,14.0,57,0.00,,---,0.00,VWS V14.01,2013-10-11 15:57:00,
2013-10-11 10:58:00,71.3,55.8,29.67,South,191,12.0,15.0,58,0.00,,---,0.00,VWS V14.01,2013-10-11 15:58:00,
2013-10-11 10:59:00,71.5,55.0,29.67,SSW,206,9.0,15.0,56,0.00,,---,0.00,VWS V14.01,2013-10-11 15:59:00,
2013-10-11 11:00:00,71.5,55.0,29.67,SSW,198,13.0,13.0,56,0.00,,---,0.00,VWS V14.01,2013-10-11 16:00:00,
2013-10-11 11:01:00,71.5,55.0,29.67,SSW,209,6.0,14.0,56,0.00,,---,0.00,VWS V14.01,2013-10-11 16:01:00,
2013-10-11 11:02:00,71.5,54.5,29.67,SSW,202,7.0,14.0,55,0.00,,---,0.00,VWS V14.01,2013-10-11 16:02:00,
2013-10-11 11:03:00,71.6,55.1,29.67,SSW,209,5.0,14.0,56,0.00,,---,0.00,VWS V14.01,2013-10-11 16:03:00,
2013-10-11 11:05:00,71.8,55.3,29.67,South,189,10.0,16.0,56,0.00,,---,0.00,VWS V14.01,2013-10-11 16:05:00,
2013-10-11 11:06:00,71.8,54.8,29.67,SSW,213,8.0,16.0,55,0.00,,---,0.00,VWS V14.01,2013-10-11 16:06:00,
2013-10-11 11:07:00,71.8,54.3,29.67,SSW,209,13.0,20.0,54,0.00,,---,0.00,VWS V14.01,2013-10-11 16:07:00,
2013-10-11 11:08:00,71.8,54.3,29.67,SSW,209,6.0,20.0,54,0.00,,---,0.00,VWS V14.01,2013-10-11 16:08:00,
2013-10-11 11:10:00,71.8,54.3,29.67,SW,223,11.0,20.0,54,0.00,,---,0.00,VWS V14.01,2013-10-11 16:10:00,
2013-10-11 11:11:00,71.8,53.8,29.67,SSW,208,9.0,13.0,53,0.00,,---,0.00,VWS V14.01,2013-10-11 16:11:00,
2013-10-11 11:12:00,71.8,53.8,29.67,SW,214,6.0,13.0,53,0.00,,---,0.00,VWS V14.01,2013-10-11 16:12:00,
2013-10-11 11:13:00,71.8,55.3,29.67,SW,217,5.0,13.0,56,0.00,,---,0.00,VWS V14.01,2013-10-11 16:13:00,
2013-10-11 11:15:00,72.0,55.0,29.67,SSW,200,7.0,13.0,55,0.00,,---,0.00,VWS V14.01,2013-10-11 16:15:00,
2013-10-11 11:16:00,72.0,55.5,29.67,SW,217,5.0,13.0,56,0.00,,---,0.00,VWS V14.01,2013-10-11 16:16:00,
2013-10-11 11:17:00,72.0,55.5,29.67,SSW,205,5.0,13.0,56,0.00,,---,0.00,VWS V14.01,2013-10-11 16:17:00,
2013-10-11 11:18:00,72.1,55.6,29.67,SSW,207,7.0,14.0,56,0.00,,---,0.00,VWS V14.01,2013-10-11 16:18:00,
2013-10-11 11:19:00,72.1,55.6,29.67,SSW,208,5.0,14.0,56,0.00,,---,0.00,VWS V14.01,2013-10-11 16:19:00,
2013-10-11 11:20:00,72.3,55.2,29.67,SSW,205,6.0,10.0,55,0.00,,---,0.00,VWS V14.01,2013-10-11 16:20:00,
2013-10-11 11:21:00,72.3,55.2,29.67,SSW,208,5.0,10.0,55,0.00,,---,0.00,VWS V14.01,2013-10-11 16:21:00,
2013-10-11 11:22:00,72.1,55.1,29.67,SSW,202,7.0,12.0,55,0.00,,---,0.00,VWS V14.01,2013-10-11 16:22:00,
2013-10-11 11:23:00,72.1,54.6,29.67,SSW,206,4.0,12.0,54,0.00,,---,0.00,VWS V14.01,2013-10-11 16:23:00,
2013-10-11 11:24:00,72.3,54.7,29.67,SW,236,9.0,12.0,54,0.00,,---,0.00,VWS V14.01,2013-10-11 16:24:00,
2013-10-11 11:25:00,72.3,53.7,29.67,SW,231,12.0,13.0,52,0.00,,---,0.00,VWS V14.01,2013-10-11 16:25:00,
2013-10-11 11:26:00,72.3,53.7,29.67,SW,226,11.0,13.0,52,0.00,,---,0.00,VWS V14.01,2013-10-11 16:26:00,
2013-10-11 11:27:00,72.3,53.2,29.67,SW,225,12.0,13.0,51,0.00,,---,0.00,VWS V14.01,2013-10-11 16:27:00,
2013-10-11 11:28:00,72.5,54.9,29.67,SSW,202,7.0,13.0,54,0.00,,---,0.00,VWS V14.01,2013-10-11 16:28:00,
2013-10-11 11:29:00,72.5,54.9,29.67,SSW,196,5.0,13.0,54,0.00,,---,0.00,VWS V14.01,2013-10-11 16:29:00,
2013-10-11 11:30:00,72.5,54.4,29.67,SSW,199,8.0,8.0,53,0.00,,---,0.00,VWS V14.01,2013-10-11 16:30:00,
2013-10-11 11:31:00,72.5,54.4,29.67,SSW,209,9.0,12.0,53,0.00,,---,0.00,VWS V14.01,2013-10-11 16:31:00,
2013-10-11 11:32:00,72.7,54.6,29.67,SSW,196,6.0,12.0,53,0.00,,---,0.00,VWS V14.01,2013-10-11 16:32:00,
2013-10-11 11:33:00,72.7,54.6,29.67,SSW,206,6.0,16.0,53,0.00,,---,0.00,VWS V14.01,2013-10-11 16:33:00,
2013-10-11 11:34:00,72.7,54.1,29.67,SW,219,6.0,16.0,52,0.00,,---,0.00,VWS V14.01,2013-10-11 16:34:00,
2013-10-11 11:35:00,72.7,54.1,29.67,SSW,211,7.0,16.0,52,0.00,,---,0.00,VWS V14.01,2013-10-11 16:35:00,
2013-10-11 11:36:00,72.7,54.1,29.67,SSW,208,5.0,16.0,52,0.00,,---,0.00,VWS V14.01,2013-10-11 16:36:00,
2013-10-11 11:37:00,72.8,53.6,29.67,SSW,212,5.0,16.0,51,0.00,,---,0.00,VWS V14.01,2013-10-11 16:37:00,
2013-10-11 11:38:00,72.8,52.0,29.67,SW,234,11.0,16.0,48,0.00,,---,0.00,VWS V14.01,2013-10-11 16:38:00,
2013-10-11 11:39:00,72.8,50.8,29.67,SW,225,11.0,16.0,46,0.00,,---,0.00,VWS V14.01,2013-10-11 16:39:00,
2013-10-11 11:41:00,73.0,50.4,29.67,SW,224,11.0,12.0,45,0.00,,---,0.00,VWS V14.01,2013-10-11 16:41:00,
2013-10-11 11:42:00,72.8,50.2,29.67,SW,227,9.0,12.0,45,0.00,,---,0.00,VWS V14.01,2013-10-11 16:42:00,
2013-10-11 11:43:00,73.0,49.8,29.67,SW,235,12.0,13.0,44,0.00,,---,0.00,VWS V14.01,2013-10-11 16:43:00,
2013-10-11 11:44:00,73.0,49.8,29.67,SW,229,11.0,14.0,44,0.00,,---,0.00,VWS V14.01,2013-10-11 16:44:00,
2013-10-11 11:46:00,73.2,50.6,29.67,SW,225,8.0,14.0,45,0.00,,---,0.00,VWS V14.01,2013-10-11 16:46:00,
2013-10-11 11:47:00,73.3,50.7,29.67,SW,225,6.0,14.0,45,0.00,,---,0.00,VWS V14.01,2013-10-11 16:47:00,
2013-10-11 11:48:00,73.3,50.7,29.67,SW,219,6.0,14.0,45,0.00,,---,0.00,VWS V14.01,2013-10-11 16:48:00,
2013-10-11 11:49:00,73.5,51.5,29.67,SW,227,10.0,14.0,46,0.00,,---,0.00,VWS V14.01,2013-10-11 16:49:00,
2013-10-11 11:51:00,73.7,51.7,29.67,SW,217,7.0,8.0,46,0.00,,---,0.00,VWS V14.01,2013-10-11 16:51:00,
2013-10-11 11:52:00,73.7,51.1,29.67,SW,230,12.0,13.0,45,0.00,,---,0.00,VWS V14.01,2013-10-11 16:52:00,
2013-10-11 11:54:00,73.9,50.6,29.67,SW,226,10.0,13.0,44,0.00,,---,0.00,VWS V14.01,2013-10-11 16:54:00,
2013-10-11 11:56:00,73.9,51.2,29.67,SSW,205,10.0,13.0,45,0.00,,---,0.00,VWS V14.01,2013-10-11 16:56:00,
2013-10-11 11:57:00,73.7,51.1,29.67,SW,225,7.0,13.0,45,0.00,,---,0.00,VWS V14.01,2013-10-11 16:57:00,
2013-10-11 11:59:00,73.5,50.9,29.67,SW,221,6.0,13.0,45,0.00,,---,0.00,VWS V14.01,2013-10-11 16:59:00,
2013-10-11 12:01:00,73.7,51.1,29.67,SSW,201,10.0,11.0,45,0.00,,---,0.00,VWS V14.01,2013-10-11 17:01:00,
2013-10-11 12:02:00,73.7,51.1,29.67,SSW,205,8.0,12.0,45,0.00,,---,0.00,VWS V14.01,2013-10-11 17:02:00,
2013-10-11 12:04:00,73.7,49.2,29.67,SSW,205,7.0,14.0,42,0.00,,---,0.00,VWS V14.01,2013-10-11 17:04:00,
2013-10-11 12:06:00,73.7,51.1,29.67,SW,222,8.0,14.0,45,0.00,,---,0.00,VWS V14.01,2013-10-11 17:06:00,
2013-10-11 12:07:00,73.7,51.1,29.67,SW,218,6.0,14.0,45,0.00,,---,0.00,VWS V14.01,2013-10-11 17:07:00,
2013-10-11 12:09:00,73.9,52.4,29.67,SW,225,7.0,14.0,47,0.00,,---,0.00,VWS V14.01,2013-10-11 17:09:00,
2013-10-11 12:11:00,74.0,50.7,29.67,SW,234,11.0,11.0,44,0.00,,---,0.00,VWS V14.01,2013-10-11 17:11:00,
2013-10-11 12:12:00,74.0,50.7,29.67,SW,227,9.0,12.0,44,0.00,,---,0.00,VWS V14.01,2013-10-11 17:12:00,
2013-10-11 12:14:00,74.2,52.1,29.67,SW,219,5.0,12.0,46,0.00,,---,0.00,VWS V14.01,2013-10-11 17:14:00,
2013-10-11 12:16:00,74.2,50.9,29.67,SW,222,8.0,15.0,44,0.00,,---,0.00,VWS V14.01,2013-10-11 17:16:00,
2013-10-11 12:17:00,74.2,50.9,29.67,SW,222,10.0,15.0,44,0.00,,---,0.00,VWS V14.01,2013-10-11 17:17:00,
2013-10-11 12:19:00,74.2,50.9,29.67,SSW,206,7.0,15.0,44,0.00,,---,0.00,VWS V14.01,2013-10-11 17:19:00,
2013-10-11 12:20:00,74.2,51.5,29.67,SSW,204,6.0,15.0,45,0.00,,---,0.00,VWS V14.01,2013-10-11 17:20:00,
2013-10-11 12:21:00,74.4,51.7,29.67,SW,220,6.0,11.0,45,0.00,,---,0.00,VWS V14.01,2013-10-11 17:21:00,
2013-10-11 12:22:00,74.4,51.7,29.67,SW,215,7.0,11.0,45,0.00,,---,0.00,VWS V14.01,2013-10-11 17:22:00,
2013-10-11 12:24:00,74.6,52.5,29.67,SSW,212,5.0,11.0,46,0.00,,---,0.00,VWS V14.01,2013-10-11 17:24:00,
2013-10-11 12:25:00,74.6,51.9,29.67,SW,221,6.0,11.0,45,0.00,,---,0.00,VWS V14.01,2013-10-11 17:25:00,
2013-10-11 12:26:00,74.7,52.0,29.67,SSW,211,7.0,11.0,45,0.00,,---,0.00,VWS V14.01,2013-10-11 17:26:00,
2013-10-11 12:27:00,74.9,52.2,29.67,SW,218,7.0,11.0,45,0.00,,---,0.00,VWS V14.01,2013-10-11 17:27:00,
2013-10-11 12:29:00,74.7,51.4,29.67,SW,222,6.0,11.0,44,0.00,,---,0.00,VWS V14.01,2013-10-11 17:29:00,
2013-10-11 12:30:00,74.7,51.4,29.67,SSW,193,7.0,9.0,44,0.00,,---,0.00,VWS V14.01,2013-10-11 17:30:00,
2013-10-11 12:31:00,74.7,52.0,29.67,SSW,195,12.0,13.0,45,0.00,,---,0.00,VWS V14.01,2013-10-11 17:31:00,
2013-10-11 12:32:00,74.7,52.0,29.67,SW,219,10.0,14.0,45,0.00,,---,0.00,VWS V14.01,2013-10-11 17:32:00,
2013-10-11 12:34:00,74.7,51.4,29.67,SSW,205,4.0,14.0,44,0.00,,---,0.00,VWS V14.01,2013-10-11 17:34:00,
2013-10-11 12:35:00,74.7,51.4,29.67,SSW,200,6.0,14.0,44,0.00,,---,0.00,VWS V14.01,2013-10-11 17:35:00,
2013-10-11 12:37:00,74.9,51.5,29.67,SW,221,5.0,14.0,44,0.00,,---,0.00,VWS V14.01,2013-10-11 17:37:00,
2013-10-11 12:39:00,74.9,50.9,29.67,SW,227,5.0,14.0,43,0.00,,---,0.00,VWS V14.01,2013-10-11 17:39:00,
2013-10-11 12:40:00,74.9,51.5,29.67,South,190,8.0,8.0,44,0.00,,---,0.00,VWS V14.01,2013-10-11 17:40:00,
2013-10-11 12:42:00,75.1,54.1,29.67,SSW,199,5.0,12.0,48,0.00,,---,0.00,VWS V14.01,2013-10-11 17:42:00,
2013-10-11 12:43:00,75.3,54.3,29.67,SSW,206,6.0,12.0,48,0.00,,---,0.00,VWS V14.01,2013-10-11 17:43:00,
2013-10-11 12:44:00,75.3,50.7,29.66,SW,229,5.0,12.0,42,0.00,,---,0.00,VWS V14.01,2013-10-11 17:44:00,
2013-10-11 12:46:00,75.3,50.7,29.66,SSW,213,5.0,12.0,42,0.00,,---,0.00,VWS V14.01,2013-10-11 17:46:00,
2013-10-11 12:47:00,75.4,51.4,29.66,SSW,192,8.0,13.0,43,0.00,,---,0.00,VWS V14.01,2013-10-11 17:47:00,
2013-10-11 12:48:00,75.4,51.4,29.66,SSW,212,5.0,13.0,43,0.00,,---,0.00,VWS V14.01,2013-10-11 17:48:00,
2013-10-11 12:49:00,75.3,51.3,29.66,SW,228,8.0,13.0,43,0.00,,---,0.00,VWS V14.01,2013-10-11 17:49:00,
2013-10-11 12:51:00,75.3,50.7,29.66,SW,217,4.0,10.0,42,0.00,,---,0.00,VWS V14.01,2013-10-11 17:51:00,
2013-10-11 12:52:00,75.4,51.4,29.66,SSW,205,7.0,10.0,43,0.00,,---,0.00,VWS V14.01,2013-10-11 17:52:00,
2013-10-11 12:53:00,75.4,51.4,29.66,SSW,192,13.0,13.0,43,0.00,,---,0.00,VWS V14.01,2013-10-11 17:53:00,
2013-10-11 12:54:00,75.6,50.3,29.66,SW,227,9.0,13.0,41,0.00,,---,0.00,VWS V14.01,2013-10-11 17:54:00,
2013-10-11 12:56:00,75.8,49.1,29.66,SSW,209,8.0,15.0,39,0.00,,---,0.00,VWS V14.01,2013-10-11 17:56:00,
2013-10-11 12:57:00,75.8,49.8,29.66,SSW,202,11.0,15.0,40,0.00,,---,0.00,VWS V14.01,2013-10-11 17:57:00,
2013-10-11 12:58:00,75.8,49.8,29.66,SSW,203,10.0,15.0,40,0.00,,---,0.00,VWS V14.01,2013-10-11 17:58:00,
2013-10-11 12:59:00,75.6,48.9,29.66,SSW,202,6.0,15.0,39,0.00,,---,0.00,VWS V14.01,2013-10-11 17:59:00,
2013-10-11 13:01:00,75.6,48.9,29.67,SSW,202,7.0,11.0,39,0.00,,---,0.00,VWS V14.01,2013-10-11 18:01:00,
2013-10-11 13:02:00,75.6,48.2,29.67,SW,225,10.0,13.0,38,0.00,,---,0.00,VWS V14.01,2013-10-11 18:02:00,
2013-10-11 13:03:00,75.6,48.2,29.67,SW,214,11.0,13.0,38,0.00,,---,0.00,VWS V14.01,2013-10-11 18:03:00,
2013-10-11 13:04:00,75.6,47.5,29.67,SW,222,11.0,13.0,37,0.00,,---,0.00,VWS V14.01,2013-10-11 18:04:00,
2013-10-11 13:06:00,75.8,47.7,29.67,SW,221,8.0,13.0,37,0.00,,---,0.00,VWS V14.01,2013-10-11 18:06:00,
2013-10-11 13:07:00,76.0,47.2,29.67,SW,221,4.0,13.0,36,0.00,,---,0.00,VWS V14.01,2013-10-11 18:07:00,
2013-10-11 13:08:00,76.0,47.2,29.67,SW,222,6.0,13.0,36,0.00,,---,0.00,VWS V14.01,2013-10-11 18:08:00,
2013-10-11 13:09:00,76.1,48.7,29.67,SW,217,5.0,13.0,38,0.00,,---,0.00,VWS V14.01,2013-10-11 18:09:00,
2013-10-11 13:11:00,76.5,48.3,29.67,SW,218,5.0,9.0,37,0.00,,---,0.00,VWS V14.01,2013-10-11 18:11:00,
2013-10-11 13:13:00,76.7,47.0,29.67,SW,228,7.0,12.0,35,0.00,,---,0.00,VWS V14.01,2013-10-11 18:13:00,
2013-10-11 13:14:00,76.8,47.1,29.67,SW,225,11.0,12.0,35,0.00,,---,0.00,VWS V14.01,2013-10-11 18:14:00,
2013-10-11 13:15:00,76.8,47.1,29.66,SW,227,6.0,12.0,35,0.00,,---,0.00,VWS V14.01,2013-10-11 18:15:00,
2013-10-11 13:16:00,76.8,46.3,29.66,SW,230,7.0,12.0,34,0.00,,---,0.00,VWS V14.01,2013-10-11 18:16:00,
2013-10-11 13:18:00,76.7,45.5,29.66,SW,235,10.0,12.0,33,0.00,,---,0.00,VWS V14.01,2013-10-11 18:18:00,
2013-10-11 13:19:00,76.7,45.5,29.66,SW,234,12.0,12.0,33,0.00,,---,0.00,VWS V14.01,2013-10-11 18:19:00,
2013-10-11 13:20:00,76.8,44.7,29.66,WSW,246,10.0,15.0,32,0.00,,---,0.00,VWS V14.01,2013-10-11 18:20:00,
2013-10-11 13:21:00,76.8,44.7,29.66,North,360,10.0,13.0,32,0.00,,---,0.00,VWS V14.01,2013-10-11 18:21:00,
2013-10-11 13:23:00,76.8,44.7,29.66,SW,227,7.0,13.0,32,0.00,,---,0.00,VWS V14.01,2013-10-11 18:23:00,
2013-10-11 13:24:00,76.8,46.3,29.66,SSW,213,5.0,13.0,34,0.00,,---,0.00,VWS V14.01,2013-10-11 18:24:00,
2013-10-11 13:25:00,77.0,45.7,29.66,SW,231,4.0,13.0,33,0.00,,---,0.00,VWS V14.01,2013-10-11 18:25:00,
2013-10-11 13:26:00,77.0,46.5,29.66,SSW,209,6.0,13.0,34,0.00,,---,0.00,VWS V14.01,2013-10-11 18:26:00,
2013-10-11 13:28:00,77.0,46.5,29.66,SSW,205,6.0,13.0,34,0.00,,---,0.00,VWS V14.01,2013-10-11 18:28:00,
2013-10-11 13:29:00,76.8,46.3,29.66,SSW,199,13.0,13.0,34,0.00,,---,0.00,VWS V14.01,2013-10-11 18:29:00,
2013-10-11 13:30:00,76.8,46.3,29.66,SSW,201,7.0,7.0,34,0.00,,---,0.00,VWS V14.01,2013-10-11 18:30:00,
2013-10-11 13:31:00,76.7,46.2,29.66,SSW,204,6.0,13.0,34,0.00,,---,0.00,VWS V14.01,2013-10-11 18:31:00,
2013-10-11 13:33:00,76.8,46.3,29.66,SSW,213,8.0,16.0,34,0.00,,---,0.00,VWS V14.01,2013-10-11 18:33:00,
2013-10-11 13:35:00,76.8,45.5,29.66,SSW,213,7.0,16.0,33,0.00,,---,0.00,VWS V14.01,2013-10-11 18:35:00,
2013-10-11 13:36:00,76.8,45.5,29.66,SW,227,9.0,16.0,33,0.00,,---,0.00,VWS V14.01,2013-10-11 18:36:00,
2013-10-11 13:38:00,77.0,45.7,29.66,SW,215,6.0,16.0,33,0.00,,---,0.00,VWS V14.01,2013-10-11 18:38:00,
2013-10-11 13:40:00,77.2,45.9,29.66,SW,219,5.0,16.0,33,0.00,,---,0.00,VWS V14.01,2013-10-11 18:40:00,
2013-10-11 13:41:00,77.2,46.7,29.66,SSW,201,5.0,7.0,34,0.00,,---,0.00,VWS V14.01,2013-10-11 18:41:00,
2013-10-11 13:43:00,77.0,46.5,29.66,SSW,205,6.0,9.0,34,0.00,,---,0.00,VWS V14.01,2013-10-11 18:43:00,
2013-10-11 13:45:00,76.8,46.3,29.65,SSW,209,7.0,10.0,34,0.00,,---,0.00,VWS V14.01,2013-10-11 18:45:00,
2013-10-11 13:46:00,76.8,46.3,29.65,SSW,207,5.0,10.0,34,0.00,,---,0.00,VWS V14.01,2013-10-11 18:46:00,
2013-10-11 13:48:00,76.8,44.7,29.65,SSW,199,4.0,13.0,32,0.00,,---,0.00,VWS V14.01,2013-10-11 18:48:00,
2013-10-11 13:50:00,76.8,43.9,29.65,SW,222,7.0,13.0,31,0.00,,---,0.00,VWS V14.01,2013-10-11 18:50:00,
2013-10-11 13:51:00,77.0,40.5,29.65,WSW,241,7.0,10.0,27,0.00,,---,0.00,VWS V14.01,2013-10-11 18:51:00,
2013-10-11 13:53:00,77.2,43.4,29.65,SSW,202,9.0,13.0,30,0.00,,---,0.00,VWS V14.01,2013-10-11 18:53:00,
2013-10-11 13:55:00,77.2,46.7,29.65,SSW,200,7.0,13.0,34,0.00,,---,0.00,VWS V14.01,2013-10-11 18:55:00,
2013-10-11 13:56:00,77.4,47.6,29.65,SSW,192,7.0,13.0,35,0.00,,---,0.00,VWS V14.01,2013-10-11 18:56:00,
2013-10-11 13:57:00,77.4,47.6,29.65,SSW,192,3.0,13.0,35,0.00,,---,0.00,VWS V14.01,2013-10-11 18:57:00,
2013-10-11 13:58:00,77.6,46.2,29.65,SSW,201,7.0,13.0,33,0.00,,---,0.00,VWS V14.01,2013-10-11 18:58:00,
2013-10-11 13:59:00,77.6,46.2,29.65,SSW,205,5.0,13.0,33,0.00,,---,0.00,VWS V14.01,2013-10-11 18:59:00,
2013-10-11 14:00:00,77.6,45.4,29.65,SW,217,6.0,13.0,32,0.00,,---,0.00,VWS V14.01,2013-10-11 19:00:00,
2013-10-11 14:01:00,77.6,45.4,29.65,South,190,10.0,11.0,32,0.00,,---,0.00,VWS V14.01,2013-10-11 19:01:00,
2013-10-11 14:02:00,77.6,45.4,29.65,SSW,197,14.0,14.0,32,0.00,,---,0.00,VWS V14.01,2013-10-11 19:02:00,
2013-10-11 14:03:00,77.6,47.0,29.65,South,181,15.0,15.0,34,0.00,,---,0.00,VWS V14.01,2013-10-11 19:03:00,
2013-10-11 14:04:00,77.6,47.0,29.65,SSW,195,12.0,15.0,34,0.00,,---,0.00,VWS V14.01,2013-10-11 19:04:00,
2013-10-11 14:05:00,77.6,46.2,29.65,SSW,196,5.0,15.0,33,0.00,,---,0.00,VWS V14.01,2013-10-11 19:05:00,
2013-10-11 14:06:00,77.4,44.4,29.65,SW,217,7.0,15.0,31,0.00,,---,0.00,VWS V14.01,2013-10-11 19:06:00,
2013-10-11 14:07:00,77.4,44.4,29.65,SW,218,7.0,15.0,31,0.00,,---,0.00,VWS V14.01,2013-10-11 19:07:00,
2013-10-11 14:08:00,77.6,44.6,29.65,SSW,197,6.0,15.0,31,0.00,,---,0.00,VWS V14.01,2013-10-11 19:08:00,
2013-10-11 14:09:00,77.6,44.6,29.65,SSW,202,5.0,15.0,31,0.00,,---,0.00,VWS V14.01,2013-10-11 19:09:00,
2013-10-11 14:10:00,77.6,44.6,29.65,South,184,5.0,15.0,31,0.00,,---,0.00,VWS V14.01,2013-10-11 19:10:00,
2013-10-11 14:11:00,77.7,46.3,29.65,South,190,3.0,8.0,33,0.00,,---,0.00,VWS V14.01,2013-10-11 19:11:00,
2013-10-11 14:12:00,77.7,46.3,29.65,South,190,4.0,8.0,33,0.00,,---,0.00,VWS V14.01,2013-10-11 19:12:00,
2013-10-11 14:13:00,77.7,44.7,29.65,South,190,2.0,12.0,31,0.00,,---,0.00,VWS V14.01,2013-10-11 19:13:00,
2013-10-11 14:14:00,77.7,44.7,29.65,SSW,194,8.0,12.0,31,0.00,,---,0.00,VWS V14.01,2013-10-11 19:14:00,
2013-10-11 14:15:00,77.7,45.5,29.64,SW,216,7.0,12.0,32,0.00,,---,0.00,VWS V14.01,2013-10-11 19:15:00,
2013-10-11 14:16:00,77.9,42.2,29.64,SSW,205,4.0,12.0,28,0.00,,---,0.00,VWS V14.01,2013-10-11 19:16:00,
2013-10-11 14:17:00,77.9,42.2,29.64,SSW,205,3.0,12.0,28,0.00,,---,0.00,VWS V14.01,2013-10-11 19:17:00,
2013-10-11 14:18:00,77.9,43.1,29.64,SSW,203,3.0,12.0,29,0.00,,---,0.00,VWS V14.01,2013-10-11 19:18:00,
2013-10-11 14:19:00,77.9,44.0,29.64,SSW,203,4.0,12.0,30,0.00,,---,0.00,VWS V14.01,2013-10-11 19:19:00,
2013-10-11 14:20:00,78.1,45.0,29.64,SSW,202,9.0,12.0,31,0.00,,---,0.00,VWS V14.01,2013-10-11 19:20:00,
2013-10-11 14:21:00,78.3,47.7,29.64,SSW,198,6.0,9.0,34,0.00,,---,0.00,VWS V14.01,2013-10-11 19:21:00,
2013-10-11 14:22:00,78.3,47.7,29.64,SSW,198,4.0,9.0,34,0.00,,---,0.00,VWS V14.01,2013-10-11 19:22:00,
2013-10-11 14:23:00,78.5,46.2,29.64,SW,228,9.0,10.0,32,0.00,,---,0.00,VWS V14.01,2013-10-11 19:23:00,
2013-10-11 14:24:00,78.5,46.2,29.64,SSW,209,11.0,11.0,32,0.00,,---,0.00,VWS V14.01,2013-10-11 19:24:00,
2013-10-11 14:25:00,78.5,46.2,29.64,SSW,202,11.0,11.0,32,0.00,,---,0.00,VWS V14.01,2013-10-11 19:25:00,
2013-10-11 14:27:00,78.3,45.2,29.64,SW,221,12.0,13.0,31,0.00,,---,0.00,VWS V14.01,2013-10-11 19:27:00,
2013-10-11 14:28:00,78.1,44.2,29.64,SSW,205,9.0,13.0,30,0.00,,---,0.00,VWS V14.01,2013-10-11 19:28:00,
2013-10-11 14:29:00,78.1,45.0,29.64,SSW,207,6.0,13.0,31,0.00,,---,0.00,VWS V14.01,2013-10-11 19:29:00,
2013-10-11 14:30:00,78.1,45.9,29.64,SSW,198,5.0,13.0,32,0.00,,---,0.00,VWS V14.01,2013-10-11 19:30:00,
2013-10-11 14:32:00,78.1,47.5,29.64,SSW,193,12.0,14.0,34,0.00,,---,0.00,VWS V14.01,2013-10-11 19:32:00,
2013-10-11 14:33:00,78.3,46.9,29.64,SSW,196,1.0,14.0,33,0.00,,---,0.00,VWS V14.01,2013-10-11 19:33:00,
2013-10-11 14:34:00,78.3,46.0,29.64,SSW,196,3.0,14.0,32,0.00,,---,0.00,VWS V14.01,2013-10-11 19:34:00,
2013-10-11 14:35:00,78.3,46.0,29.64,SSW,199,9.0,15.0,32,0.00,,---,0.00,VWS V14.01,2013-10-11 19:35:00,
2013-10-11 14:37:00,78.3,46.0,29.64,SSW,201,5.0,15.0,32,0.00,,---,0.00,VWS V14.01,2013-10-11 19:37:00,
2013-10-11 14:38:00,78.5,46.2,29.64,SSW,201,4.0,15.0,32,0.00,,---,0.00,VWS V14.01,2013-10-11 19:38:00,
2013-10-11 14:39:00,78.5,47.0,29.64,SSW,201,4.0,15.0,33,0.00,,---,0.00,VWS V14.01,2013-10-11 19:39:00,
2013-10-11 14:40:00,78.5,47.0,29.64,SSW,201,4.0,15.0,33,0.00,,---,0.00,VWS V14.01,2013-10-11 19:40:00,
2013-10-11 14:42:00,78.6,46.3,29.64,SW,223,7.0,7.0,32,0.00,,---,0.00,VWS V14.01,2013-10-11 19:42:00,
2013-10-11 14:43:00,78.6,44.6,29.64,SW,224,5.0,10.0,30,0.00,,---,0.00,VWS V14.01,2013-10-11 19:43:00,
2013-10-11 14:44:00,78.6,44.6,29.64,SW,224,3.0,10.0,30,0.00,,---,0.00,VWS V14.01,2013-10-11 19:44:00,
2013-10-11 14:45:00,78.6,46.3,29.64,SW,225,5.0,10.0,32,0.00,,---,0.00,VWS V14.01,2013-10-11 19:45:00,
2013-10-11 14:47:00,78.8,45.6,29.64,SW,223,8.0,10.0,31,0.00,,---,0.00,VWS V14.01,2013-10-11 19:47:00,
2013-10-11 14:48:00,79.0,46.7,29.64,SSW,200,11.0,16.0,32,0.00,,---,0.00,VWS V14.01,2013-10-11 19:48:00,
2013-10-11 14:49:00,78.8,46.5,29.64,South,191,10.0,16.0,32,0.00,,---,0.00,VWS V14.01,2013-10-11 19:49:00,
2013-10-11 14:50:00,78.8,46.5,29.64,SSW,194,5.0,16.0,32,0.00,,---,0.00,VWS V14.01,2013-10-11 19:50:00,
2013-10-11 14:52:00,78.6,46.3,29.64,SSW,200,7.0,7.0,32,0.00,,---,0.00,VWS V14.01,2013-10-11 19:52:00,
2013-10-11 14:53:00,78.6,45.5,29.64,SSW,200,3.0,7.0,31,0.00,,---,0.00,VWS V14.01,2013-10-11 19:53:00,
2013-10-11 14:54:00,78.6,45.5,29.64,SSW,197,5.0,7.0,31,0.00,,---,0.00,VWS V14.01,2013-10-11 19:54:00,
2013-10-11 14:55:00,78.6,45.5,29.64,SSW,196,5.0,8.0,31,0.00,,---,0.00,VWS V14.01,2013-10-11 19:55:00,
2013-10-11 14:57:00,78.5,41.8,29.64,SW,229,6.0,10.0,27,0.00,,---,0.00,VWS V14.01,2013-10-11 19:57:00,
2013-10-11 14:58:00,78.6,42.8,29.64,SW,225,8.0,10.0,28,0.00,,---,0.00,VWS V14.01,2013-10-11 19:58:00,
2013-10-11 14:59:00,78.8,43.9,29.64,SW,233,9.0,10.0,29,0.00,,---,0.00,VWS V14.01,2013-10-11 19:59:00,
2013-10-11 15:00:00,78.8,43.0,29.64,South,182,7.0,10.0,28,0.00,,---,0.00,VWS V14.01,2013-10-11 20:00:00,
2013-10-11 15:01:00,78.8,43.0,29.64,SSW,194,8.0,10.0,28,0.00,,---,0.00,VWS V14.01,2013-10-11 20:01:00,
2013-10-11 15:02:00,78.8,40.0,29.64,SSW,198,5.0,14.0,25,0.00,,---,0.00,VWS V14.01,2013-10-11 20:02:00,
2013-10-11 15:03:00,79.0,43.2,29.64,SSW,202,4.0,14.0,28,0.00,,---,0.00,VWS V14.01,2013-10-11 20:03:00,
2013-10-11 15:05:00,79.0,43.2,29.64,SSW,198,11.0,14.0,28,0.00,,---,0.00,VWS V14.01,2013-10-11 20:05:00,
2013-10-11 15:06:00,79.2,43.3,29.64,SSW,211,9.0,14.0,28,0.00,,---,0.00,VWS V14.01,2013-10-11 20:06:00,
2013-10-11 15:07:00,79.2,42.4,29.64,SW,215,5.0,14.0,27,0.00,,---,0.00,VWS V14.01,2013-10-11 20:07:00,
2013-10-11 15:08:00,79.2,42.4,29.64,SSW,209,4.0,14.0,27,0.00,,---,0.00,VWS V14.01,2013-10-11 20:08:00,
2013-10-11 15:10:00,79.4,43.5,29.64,SW,221,5.0,14.0,28,0.00,,---,0.00,VWS V14.01,2013-10-11 20:10:00,
2013-10-11 15:11:00,79.4,42.5,29.64,SW,215,3.0,5.0,27,0.00,,---,0.00,VWS V14.01,2013-10-11 20:11:00,
2013-10-11 15:12:00,79.4,43.5,29.64,SSW,200,6.0,7.0,28,0.00,,---,0.00,VWS V14.01,2013-10-11 20:12:00,
2013-10-11 15:13:00,79.4,42.5,29.64,SSW,201,11.0,23.0,27,0.00,,---,0.00,VWS V14.01,2013-10-11 20:13:00,
2013-10-11 15:15:00,79.4,44.4,29.64,SSW,194,5.0,23.0,29,0.00,,---,0.00,VWS V14.01,2013-10-11 20:15:00,
2013-10-11 15:16:00,79.4,43.5,29.64,SSW,200,8.0,23.0,28,0.00,,---,0.00,VWS V14.01,2013-10-11 20:16:00,
2013-10-11 15:17:00,79.4,43.5,29.64,SW,215,6.0,23.0,28,0.00,,---,0.00,VWS V14.01,2013-10-11 20:17:00,
2013-10-11 15:18:00,79.4,43.5,29.64,SSW,202,9.0,23.0,28,0.00,,---,0.00,VWS V14.01,2013-10-11 20:18:00,
2013-10-11 15:20:00,79.4,43.5,29.64,SSW,207,4.0,23.0,28,0.00,,---,0.00,VWS V14.01,2013-10-11 20:20:00,
2013-10-11 15:21:00,79.4,42.5,29.64,SSW,206,6.0,9.0,27,0.00,,---,0.00,VWS V14.01,2013-10-11 20:21:00,
2013-10-11 15:22:00,79.4,43.5,29.64,SSW,197,6.0,9.0,28,0.00,,---,0.00,VWS V14.01,2013-10-11 20:22:00,
2013-10-11 15:23:00,79.4,43.5,29.64,SSW,200,8.0,12.0,28,0.00,,---,0.00,VWS V14.01,2013-10-11 20:23:00,
2013-10-11 15:25:00,79.4,42.5,29.64,SSW,196,12.0,14.0,27,0.00,,---,0.00,VWS V14.01,2013-10-11 20:25:00,
2013-10-11 15:26:00,79.2,42.4,29.64,SSW,198,14.0,14.0,27,0.00,,---,0.00,VWS V14.01,2013-10-11 20:26:00,
2013-10-11 15:27:00,79.2,43.3,29.64,SSW,208,5.0,15.0,28,0.00,,---,0.00,VWS V14.01,2013-10-11 20:27:00,
2013-10-11 15:28:00,79.2,43.3,29.64,SW,228,4.0,15.0,28,0.00,,---,0.00,VWS V14.01,2013-10-11 20:28:00,
2013-10-11 15:30:00,79.2,43.3,29.64,SW,236,10.0,15.0,28,0.00,,---,0.00,VWS V14.01,2013-10-11 20:30:00,
2013-10-11 15:31:00,79.2,43.3,29.64,SW,216,6.0,9.0,28,0.00,,---,0.00,VWS V14.01,2013-10-11 20:31:00,
2013-10-11 15:32:00,79.4,43.5,29.64,SW,217,10.0,10.0,28,0.00,,---,0.00,VWS V14.01,2013-10-11 20:32:00,
2013-10-11 15:33:00,79.4,43.5,29.64,SSW,212,6.0,12.0,28,0.00,,---,0.00,VWS V14.01,2013-10-11 20:33:00,
2013-10-11 15:35:00,79.4,43.5,29.64,SSW,202,4.0,12.0,28,0.00,,---,0.00,VWS V14.01,2013-10-11 20:35:00,
2013-10-11 15:36:00,79.4,42.5,29.64,SW,221,10.0,12.0,27,0.00,,---,0.00,VWS V14.01,2013-10-11 20:36:00,
2013-10-11 15:37:00,79.6,44.6,29.64,SW,226,11.0,12.0,29,0.00,,---,0.00,VWS V14.01,2013-10-11 20:37:00,
2013-10-11 15:38:00,79.6,42.7,29.64,SW,229,11.0,13.0,27,0.00,,---,0.00,VWS V14.01,2013-10-11 20:38:00,
2013-10-11 15:40:00,79.6,41.7,29.64,SW,229,9.0,9.0,26,0.00,,---,0.00,VWS V14.01,2013-10-11 20:40:00,
2013-10-11 15:41:00,79.6,41.7,29.64,SW,219,6.0,10.0,26,0.00,,---,0.00,VWS V14.01,2013-10-11 20:41:00,
2013-10-11 15:42:00,79.6,42.7,29.64,SW,222,10.0,10.0,27,0.00,,---,0.00,VWS V14.01,2013-10-11 20:42:00,
2013-10-11 15:43:00,79.4,42.5,29.64,SW,227,7.0,10.0,27,0.00,,---,0.00,VWS V14.01,2013-10-11 20:43:00,
2013-10-11 15:44:00,79.4,41.6,29.64,SW,234,7.0,10.0,26,0.00,,---,0.00,VWS V14.01,2013-10-11 20:44:00,
2013-10-11 15:45:00,79.6,41.7,29.64,SW,230,9.0,12.0,26,0.00,,---,0.00,VWS V14.01,2013-10-11 20:45:00,
2013-10-11 15:46:00,79.6,42.7,29.64,WSW,245,9.0,12.0,27,0.00,,---,0.00,VWS V14.01,2013-10-11 20:46:00,
2013-10-11 15:47:00,79.6,41.7,29.64,WSW,237,10.0,12.0,26,0.00,,---,0.00,VWS V14.01,2013-10-11 20:47:00,
2013-10-11 15:48:00,79.6,41.7,29.64,SW,236,6.0,12.0,26,0.00,,---,0.00,VWS V14.01,2013-10-11 20:48:00,
2013-10-11 15:49:00,79.6,41.7,29.64,SW,229,7.0,12.0,26,0.00,,---,0.00,VWS V14.01,2013-10-11 20:49:00,
2013-10-11 15:50:00,79.6,41.7,29.64,SW,230,4.0,5.0,26,0.00,,---,0.00,VWS V14.01,2013-10-11 20:50:00,
2013-10-11 15:51:00,79.8,42.9,29.64,SW,229,7.0,10.0,27,0.00,,---,0.00,VWS V14.01,2013-10-11 20:51:00,
2013-10-11 15:52:00,79.8,42.9,29.64,WSW,238,10.0,10.0,27,0.00,,---,0.00,VWS V14.01,2013-10-11 20:52:00,
2013-10-11 15:53:00,79.8,40.9,29.64,SW,219,7.0,13.0,25,0.00,,---,0.00,VWS V14.01,2013-10-11 20:53:00,
2013-10-11 15:54:00,79.8,40.9,29.64,SW,224,6.0,13.0,25,0.00,,---,0.00,VWS V14.01,2013-10-11 20:54:00,
2013-10-11 15:55:00,79.8,41.9,29.64,SW,223,6.0,13.0,26,0.00,,---,0.00,VWS V14.01,2013-10-11 20:55:00,
2013-10-11 15:56:00,79.8,41.9,29.64,SW,215,5.0,13.0,26,0.00,,---,0.00,VWS V14.01,2013-10-11 20:56:00,
2013-10-11 15:57:00,79.8,41.9,29.64,SW,215,5.0,13.0,26,0.00,,---,0.00,VWS V14.01,2013-10-11 20:57:00,
2013-10-11 15:58:00,79.8,41.9,29.64,SW,214,6.0,13.0,26,0.00,,---,0.00,VWS V14.01,2013-10-11 20:58:00,
2013-10-11 15:59:00,79.8,40.9,29.64,SW,215,6.0,13.0,25,0.00,,---,0.00,VWS V14.01,2013-10-11 20:59:00,
2013-10-11 16:00:00,79.8,41.9,29.64,SW,220,7.0,7.0,26,0.00,,---,0.00,VWS V14.01,2013-10-11 21:00:00,
2013-10-11 16:01:00,79.9,42.0,29.64,SW,227,8.0,11.0,26,0.00,,---,0.00,VWS V14.01,2013-10-11 21:01:00,
2013-10-11 16:02:00,79.9,41.0,29.64,SW,227,4.0,11.0,25,0.00,,---,0.00,VWS V14.01,2013-10-11 21:02:00,
2013-10-11 16:03:00,80.1,42.2,29.64,SW,225,6.0,11.0,26,0.00,,---,0.00,VWS V14.01,2013-10-11 21:03:00,
2013-10-11 16:04:00,80.1,42.2,29.64,SW,219,5.0,11.0,26,0.00,,---,0.00,VWS V14.01,2013-10-11 21:04:00,
2013-10-11 16:05:00,80.1,41.1,29.64,SW,219,4.0,11.0,25,0.00,,---,0.00,VWS V14.01,2013-10-11 21:05:00,
2013-10-11 16:06:00,80.1,42.2,29.64,SSW,206,6.0,13.0,26,0.00,,---,0.00,VWS V14.01,2013-10-11 21:06:00,
2013-10-11 16:07:00,79.9,41.0,29.64,SSW,209,6.0,13.0,25,0.00,,---,0.00,VWS V14.01,2013-10-11 21:07:00,
2013-10-11 16:08:00,79.9,41.0,29.64,SSW,213,6.0,13.0,25,0.00,,---,0.00,VWS V14.01,2013-10-11 21:08:00,
2013-10-11 16:09:00,79.9,42.0,29.64,SSW,210,8.0,13.0,26,0.00,,---,0.00,VWS V14.01,2013-10-11 21:09:00,
2013-10-11 16:10:00,79.9,42.0,29.64,SSW,211,5.0,5.0,26,0.00,,---,0.00,VWS V14.01,2013-10-11 21:10:00,
2013-10-11 16:12:00,79.9,42.0,29.64,SSW,209,4.0,5.0,26,0.00,,---,0.00,VWS V14.01,2013-10-11 21:12:00,
2013-10-11 16:13:00,79.9,41.0,29.64,SSW,211,7.0,7.0,25,0.00,,---,0.00,VWS V14.01,2013-10-11 21:13:00,
2013-10-11 16:14:00,79.9,42.0,29.64,SSW,211,5.0,7.0,26,0.00,,---,0.00,VWS V14.01,2013-10-11 21:14:00,
2013-10-11 16:15:00,79.8,41.9,29.65,SSW,205,5.0,7.0,26,0.00,,---,0.00,VWS V14.01,2013-10-11 21:15:00,
2013-10-11 16:16:00,79.9,42.0,29.65,SSW,205,3.0,7.0,26,0.00,,---,0.00,VWS V14.01,2013-10-11 21:16:00,
2013-10-11 16:17:00,79.9,43.9,29.65,SSW,201,3.0,7.0,28,0.00,,---,0.00,VWS V14.01,2013-10-11 21:17:00,
2013-10-11 16:18:00,79.9,42.0,29.65,SSW,208,5.0,7.0,26,0.00,,---,0.00,VWS V14.01,2013-10-11 21:18:00,
2013-10-11 16:19:00,79.9,43.0,29.65,SW,221,6.0,7.0,27,0.00,,---,0.00,VWS V14.01,2013-10-11 21:19:00,
2013-10-11 16:20:00,79.9,42.0,29.65,SW,225,4.0,8.0,26,0.00,,---,0.00,VWS V14.01,2013-10-11 21:20:00,
2013-10-11 16:21:00,79.9,42.0,29.65,SW,214,4.0,8.0,26,0.00,,---,0.00,VWS V14.01,2013-10-11 21:21:00,
2013-10-11 16:22:00,79.9,41.0,29.65,SW,215,4.0,8.0,25,0.00,,---,0.00,VWS V14.01,2013-10-11 21:22:00,
2013-10-11 16:23:00,79.9,41.0,29.65,SSW,209,4.0,8.0,25,0.00,,---,0.00,VWS V14.01,2013-10-11 21:23:00,
2013-10-11 16:24:00,79.9,41.0,29.65,SSW,209,6.0,8.0,25,0.00,,---,0.00,VWS V14.01,2013-10-11 21:24:00,
2013-10-11 16:25:00,79.9,41.0,29.65,SSW,194,5.0,8.0,25,0.00,,---,0.00,VWS V14.01,2013-10-11 21:25:00,
2013-10-11 16:26:00,79.9,39.9,29.65,SSW,195,5.0,8.0,24,0.00,,---,0.00,VWS V14.01,2013-10-11 21:26:00,
2013-10-11 16:27:00,80.1,41.1,29.65,SSW,210,4.0,8.0,25,0.00,,---,0.00,VWS V14.01,2013-10-11 21:27:00,
2013-10-11 16:28:00,80.1,41.1,29.65,SSW,213,5.0,8.0,25,0.00,,---,0.00,VWS V14.01,2013-10-11 21:28:00,
2013-10-11 16:29:00,80.1,41.1,29.65,WSW,244,9.0,9.0,25,0.00,,---,0.00,VWS V14.01,2013-10-11 21:29:00,
2013-10-11 16:30:00,80.1,40.1,29.65,WSW,246,9.0,10.0,24,0.00,,---,0.00,VWS V14.01,2013-10-11 21:30:00,
2013-10-11 16:31:00,80.1,39.0,29.65,WSW,247,10.0,11.0,23,0.00,,---,0.00,VWS V14.01,2013-10-11 21:31:00,
2013-10-11 16:32:00,79.9,37.7,29.65,WSW,239,7.0,11.0,22,0.00,,---,0.00,VWS V14.01,2013-10-11 21:32:00,
2013-10-11 16:33:00,79.9,38.8,29.65,WSW,238,5.0,11.0,23,0.00,,---,0.00,VWS V14.01,2013-10-11 21:33:00,
2013-10-11 16:34:00,80.1,40.1,29.65,SW,236,7.0,11.0,24,0.00,,---,0.00,VWS V14.01,2013-10-11 21:34:00,
2013-10-11 16:35:00,80.1,40.1,29.65,SW,236,7.0,11.0,24,0.00,,---,0.00,VWS V14.01,2013-10-11 21:35:00,
2013-10-11 16:36:00,80.1,39.0,29.65,SW,234,5.0,11.0,23,0.00,,---,0.00,VWS V14.01,2013-10-11 21:36:00,
2013-10-11 16:37:00,80.1,39.0,29.65,SW,236,5.0,11.0,23,0.00,,---,0.00,VWS V14.01,2013-10-11 21:37:00,
2013-10-11 16:38:00,80.1,39.0,29.65,WSW,240,6.0,11.0,23,0.00,,---,0.00,VWS V14.01,2013-10-11 21:38:00,
2013-10-11 16:39:00,80.1,39.0,29.65,SW,236,5.0,11.0,23,0.00,,---,0.00,VWS V14.01,2013-10-11 21:39:00,
2013-10-11 16:40:00,80.1,39.0,29.65,SW,234,4.0,11.0,23,0.00,,---,0.00,VWS V14.01,2013-10-11 21:40:00,
2013-10-11 16:41:00,80.1,39.0,29.65,SW,235,6.0,6.0,23,0.00,,---,0.00,VWS V14.01,2013-10-11 21:41:00,
2013-10-11 16:42:00,79.9,38.8,29.65,SW,230,4.0,6.0,23,0.00,,---,0.00,VWS V14.01,2013-10-11 21:42:00,
2013-10-11 16:43:00,80.1,40.1,29.65,SW,230,4.0,6.0,24,0.00,,---,0.00,VWS V14.01,2013-10-11 21:43:00,
2013-10-11 16:44:00,80.1,39.0,29.65,SW,231,6.0,7.0,23,0.00,,---,0.00,VWS V14.01,2013-10-11 21:44:00,
2013-10-11 16:45:00,80.3,39.2,29.66,SW,220,4.0,7.0,23,0.00,,---,0.00,VWS V14.01,2013-10-11 21:45:00,
2013-10-11 16:46:00,80.3,40.3,29.66,SW,221,6.0,7.0,24,0.00,,---,0.00,VWS V14.01,2013-10-11 21:46:00,
2013-10-11 16:47:00,80.3,39.2,29.66,SW,229,10.0,12.0,23,0.00,,---,0.00,VWS V14.01,2013-10-11 21:47:00,
2013-10-11 16:48:00,80.1,37.9,29.66,SW,232,9.0,12.0,22,0.00,,---,0.00,VWS V14.01,2013-10-11 21:48:00,
2013-10-11 16:49:00,80.1,39.0,29.66,SW,236,10.0,12.0,23,0.00,,---,0.00,VWS V14.01,2013-10-11 21:49:00,
2013-10-11 16:50:00,80.1,37.9,29.66,SW,229,10.0,12.0,22,0.00,,---,0.00,VWS V14.01,2013-10-11 21:50:00,
2013-10-11 16:51:00,80.1,39.0,29.66,SW,235,6.0,10.0,23,0.00,,---,0.00,VWS V14.01,2013-10-11 21:51:00,
2013-10-11 16:53:00,80.1,37.9,29.66,WSW,239,7.0,10.0,22,0.00,,---,0.00,VWS V14.01,2013-10-11 21:53:00,
2013-10-11 16:54:00,79.9,38.8,29.66,SW,232,6.0,10.0,23,0.00,,---,0.00,VWS V14.01,2013-10-11 21:54:00,
2013-10-11 16:55:00,79.9,38.8,29.66,SW,232,7.0,10.0,23,0.00,,---,0.00,VWS V14.01,2013-10-11 21:55:00,
2013-10-11 16:56:00,79.9,38.8,29.66,SW,229,7.0,10.0,23,0.00,,---,0.00,VWS V14.01,2013-10-11 21:56:00,
2013-10-11 16:58:00,79.9,38.8,29.66,SW,227,7.0,10.0,23,0.00,,---,0.00,VWS V14.01,2013-10-11 21:58:00,
2013-10-11 16:59:00,79.9,38.8,29.66,SW,228,9.0,11.0,23,0.00,,---,0.00,VWS V14.01,2013-10-11 21:59:00,
2013-10-11 17:00:00,79.9,36.5,29.66,SW,235,7.0,9.0,21,0.00,,---,0.00,VWS V14.01,2013-10-11 22:00:00,
2013-10-11 17:01:00,79.8,36.4,29.66,SW,234,7.0,10.0,21,0.00,,---,0.00,VWS V14.01,2013-10-11 22:01:00,
2013-10-11 17:03:00,79.8,36.4,29.66,SW,233,5.0,10.0,21,0.00,,---,0.00,VWS V14.01,2013-10-11 22:03:00,
2013-10-11 17:04:00,79.8,36.4,29.66,SW,216,5.0,10.0,21,0.00,,---,0.00,VWS V14.01,2013-10-11 22:04:00,
2013-10-11 17:05:00,79.8,37.6,29.66,SW,228,6.0,10.0,22,0.00,,---,0.00,VWS V14.01,2013-10-11 22:05:00,
2013-10-11 17:06:00,79.8,36.4,29.66,SW,229,5.0,10.0,21,0.00,,---,0.00,VWS V14.01,2013-10-11 22:06:00,
2013-10-11 17:08:00,79.8,36.4,29.66,SW,233,8.0,11.0,21,0.00,,---,0.00,VWS V14.01,2013-10-11 22:08:00,
2013-10-11 17:09:00,79.6,35.0,29.66,SW,232,9.0,11.0,20,0.00,,---,0.00,VWS V14.01,2013-10-11 22:09:00,
2013-10-11 17:11:00,79.6,35.0,29.66,SW,236,6.0,9.0,20,0.00,,---,0.00,VWS V14.01,2013-10-11 22:11:00,
2013-10-11 17:13:00,79.6,35.0,29.66,WSW,245,5.0,9.0,20,0.00,,---,0.00,VWS V14.01,2013-10-11 22:13:00,
2013-10-11 17:14:00,79.6,35.0,29.66,WSW,245,4.0,9.0,20,0.00,,---,0.00,VWS V14.01,2013-10-11 22:14:00,
2013-10-11 17:16:00,79.6,35.0,29.67,WSW,246,5.0,9.0,20,0.00,,---,0.00,VWS V14.01,2013-10-11 22:16:00,
2013-10-11 17:18:00,79.4,34.9,29.67,SW,233,5.0,9.0,20,0.00,,---,0.00,VWS V14.01,2013-10-11 22:18:00,
2013-10-11 17:19:00,79.4,34.9,29.67,SW,234,6.0,9.0,20,0.00,,---,0.00,VWS V14.01,2013-10-11 22:19:00,
2013-10-11 17:21:00,79.4,36.1,29.67,WSW,238,5.0,8.0,21,0.00,,---,0.00,VWS V14.01,2013-10-11 22:21:00,
2013-10-11 17:23:00,79.4,36.1,29.67,SW,229,6.0,8.0,21,0.00,,---,0.00,VWS V14.01,2013-10-11 22:23:00,
2013-10-11 17:24:00,79.4,37.3,29.67,SW,229,4.0,8.0,22,0.00,,---,0.00,VWS V14.01,2013-10-11 22:24:00,
2013-10-11 17:26:00,79.2,35.9,29.67,SW,231,5.0,9.0,21,0.00,,---,0.00,VWS V14.01,2013-10-11 22:26:00,
2013-10-11 17:28:00,79.2,35.9,29.67,SW,234,6.0,9.0,21,0.00,,---,0.00,VWS V14.01,2013-10-11 22:28:00,
2013-10-11 17:29:00,79.2,35.9,29.67,WSW,237,6.0,9.0,21,0.00,,---,0.00,VWS V14.01,2013-10-11 22:29:00,
2013-10-11 17:31:00,79.0,34.5,29.67,WSW,241,6.0,9.0,20,0.00,,---,0.00,VWS V14.01,2013-10-11 22:31:00,
2013-10-11 17:33:00,79.0,34.5,29.67,WSW,242,5.0,9.0,20,0.00,,---,0.00,VWS V14.01,2013-10-11 22:33:00,
2013-10-11 17:34:00,79.0,34.5,29.67,WSW,240,6.0,9.0,20,0.00,,---,0.00,VWS V14.01,2013-10-11 22:34:00,
2013-10-11 17:36:00,78.8,34.4,29.67,WSW,242,5.0,9.0,20,0.00,,---,0.00,VWS V14.01,2013-10-11 22:36:00,
2013-10-11 17:39:00,78.8,34.4,29.67,WSW,237,4.0,9.0,20,0.00,,---,0.00,VWS V14.01,2013-10-11 22:39:00,
2013-10-11 17:41:00,78.8,35.6,29.67,WSW,237,4.0,5.0,21,0.00,,---,0.00,VWS V14.01,2013-10-11 22:41:00,
2013-10-11 17:44:00,78.8,34.4,29.67,WSW,239,6.0,6.0,20,0.00,,---,0.00,VWS V14.01,2013-10-11 22:44:00,
2013-10-11 17:46:00,78.6,34.2,29.67,WSW,240,5.0,6.0,20,0.00,,---,0.00,VWS V14.01,2013-10-11 22:46:00,
2013-10-11 17:49:00,78.6,35.4,29.67,WSW,240,5.0,6.0,21,0.00,,---,0.00,VWS V14.01,2013-10-11 22:49:00,
2013-10-11 17:50:00,78.5,34.1,29.67,WSW,239,5.0,6.0,20,0.00,,---,0.00,VWS V14.01,2013-10-11 22:50:00,
2013-10-11 17:51:00,78.5,35.4,29.67,WSW,239,4.0,6.0,21,0.00,,---,0.00,VWS V14.01,2013-10-11 22:51:00,
2013-10-11 17:52:00,78.5,35.4,29.67,WSW,239,3.0,6.0,21,0.00,,---,0.00,VWS V14.01,2013-10-11 22:52:00,
2013-10-11 17:54:00,78.3,35.2,29.67,WSW,239,4.0,6.0,21,0.00,,---,0.00,VWS V14.01,2013-10-11 22:54:00,
2013-10-11 17:55:00,78.3,35.2,29.67,WSW,239,4.0,6.0,21,0.00,,---,0.00,VWS V14.01,2013-10-11 22:55:00,
2013-10-11 17:56:00,78.1,35.0,29.67,WSW,239,4.0,6.0,21,0.00,,---,0.00,VWS V14.01,2013-10-11 22:56:00,
2013-10-11 17:57:00,78.1,35.0,29.67,WSW,239,4.0,6.0,21,0.00,,---,0.00,VWS V14.01,2013-10-11 22:57:00,
2013-10-11 17:59:00,78.1,35.0,29.67,WSW,239,3.0,6.0,21,0.00,,---,0.00,VWS V14.01,2013-10-11 22:59:00,
2013-10-11 18:00:00,78.1,35.0,29.68,WSW,239,3.0,6.0,21,0.00,,---,0.00,VWS V14.01,2013-10-11 23:00:00,
2013-10-11 18:01:00,77.9,34.9,29.68,WSW,239,4.0,5.0,21,0.00,,---,0.00,VWS V14.01,2013-10-11 23:01:00,
2013-10-11 18:02:00,77.9,34.9,29.68,WSW,239,5.0,5.0,21,0.00,,---,0.00,VWS V14.01,2013-10-11 23:02:00,
2013-10-11 18:04:00,77.7,34.7,29.68,WSW,239,4.0,5.0,21,0.00,,---,0.00,VWS V14.01,2013-10-11 23:04:00,
2013-10-11 18:05:00,77.6,34.6,29.68,WSW,239,3.0,5.0,21,0.00,,---,0.00,VWS V14.01,2013-10-11 23:05:00,
2013-10-11 18:07:00,77.4,35.6,29.68,WSW,239,3.0,5.0,22,0.00,,---,0.00,VWS V14.01,2013-10-11 23:07:00,
2013-10-11 18:09:00,77.0,36.4,29.68,WSW,239,3.0,5.0,23,0.00,,---,0.00,VWS V14.01,2013-10-11 23:09:00,
2013-10-11 18:10:00,77.0,36.4,29.68,WSW,239,3.0,5.0,23,0.00,,---,0.00,VWS V14.01,2013-10-11 23:10:00,
2013-10-11 18:12:00,76.8,35.1,29.68,WSW,239,2.0,4.0,22,0.00,,---,0.00,VWS V14.01,2013-10-11 23:12:00,
2013-10-11 18:14:00,76.7,35.0,29.68,WSW,239,2.0,4.0,22,0.00,,---,0.00,VWS V14.01,2013-10-11 23:14:00,
2013-10-11 18:15:00,76.5,36.0,29.69,WSW,239,3.0,4.0,23,0.00,,---,0.00,VWS V14.01,2013-10-11 23:15:00,
2013-10-11 18:17:00,76.3,36.9,29.69,WSW,239,0.0,4.0,24,0.00,,---,0.00,VWS V14.01,2013-10-11 23:17:00,
2013-10-11 18:19:00,76.0,37.7,29.69,WSW,239,0.0,4.0,25,0.00,,---,0.00,VWS V14.01,2013-10-11 23:19:00,
2013-10-11 18:20:00,76.0,37.7,29.69,WSW,239,0.0,4.0,25,0.00,,---,0.00,VWS V14.01,2013-10-11 23:20:00,
2013-10-11 18:22:00,75.6,37.3,29.69,WSW,239,0.0,0.0,25,0.00,,---,0.00,VWS V14.01,2013-10-11 23:22:00,
2013-10-11 18:24:00,75.4,37.2,29.69,WSW,239,0.0,0.0,25,0.00,,---,0.00,VWS V14.01,2013-10-11 23:24:00,
2013-10-11 18:25:00,75.4,37.2,29.69,WSW,239,0.0,0.0,25,0.00,,---,0.00,VWS V14.01,2013-10-11 23:25:00,
2013-10-11 18:27:00,75.3,36.0,29.69,WSW,239,0.0,0.0,24,0.00,,---,0.00,VWS V14.01,2013-10-11 23:27:00,
2013-10-11 18:29:00,75.3,36.0,29.69,WSW,249,0.0,0.0,24,0.00,,---,0.00,VWS V14.01,2013-10-11 23:29:00,
2013-10-11 18:30:00,75.3,36.0,29.70,WSW,249,0.0,0.0,24,0.00,,---,0.00,VWS V14.01,2013-10-11 23:30:00,
2013-10-11 18:32:00,75.3,36.0,29.70,WSW,249,0.0,0.0,24,0.00,,---,0.00,VWS V14.01,2013-10-11 23:32:00,
2013-10-11 18:34:00,75.3,36.0,29.70,WSW,249,0.0,0.0,24,0.00,,---,0.00,VWS V14.01,2013-10-11 23:34:00,
2013-10-11 18:35:00,75.3,36.0,29.70,WSW,249,0.0,0.0,24,0.00,,---,0.00,VWS V14.01,2013-10-11 23:35:00,
2013-10-11 18:37:00,75.1,35.9,29.70,WSW,249,0.0,0.0,24,0.00,,---,0.00,VWS V14.01,2013-10-11 23:37:00,
2013-10-11 18:39:00,74.9,36.7,29.70,WSW,249,0.0,0.0,25,0.00,,---,0.00,VWS V14.01,2013-10-11 23:39:00,
2013-10-11 18:40:00,74.9,36.7,29.70,WSW,249,0.0,0.0,25,0.00,,---,0.00,VWS V14.01,2013-10-11 23:40:00,
2013-10-11 18:42:00,74.7,36.6,29.70,WSW,249,0.0,0.0,25,0.00,,---,0.00,VWS V14.01,2013-10-11 23:42:00,
2013-10-11 18:43:00,74.6,36.5,29.70,WSW,249,0.0,0.0,25,0.00,,---,0.00,VWS V14.01,2013-10-11 23:43:00,
2013-10-11 18:44:00,74.6,36.5,29.71,WSW,249,0.0,0.0,25,0.00,,---,0.00,VWS V14.01,2013-10-11 23:44:00,
2013-10-11 18:45:00,74.4,36.3,29.71,WSW,249,0.0,0.0,25,0.00,,---,0.00,VWS V14.01,2013-10-11 23:45:00,
2013-10-11 18:48:00,74.0,37.0,29.71,WSW,249,0.0,0.0,26,0.00,,---,0.00,VWS V14.01,2013-10-11 23:48:00,
2013-10-11 18:49:00,73.9,36.9,29.71,WSW,249,0.0,0.0,26,0.00,,---,0.00,VWS V14.01,2013-10-11 23:49:00,
2013-10-11 18:50:00,73.7,36.7,29.71,WSW,249,0.0,0.0,26,0.00,,---,0.00,VWS V14.01,2013-10-11 23:50:00,
2013-10-11 18:53:00,73.3,37.3,29.71,WSW,249,0.0,0.0,27,0.00,,---,0.00,VWS V14.01,2013-10-11 23:53:00,
2013-10-11 18:55:00,73.0,37.1,29.71,WSW,249,0.0,0.0,27,0.00,,---,0.00,VWS V14.01,2013-10-11 23:55:00,
2013-10-11 18:56:00,73.0,37.1,29.71,WSW,249,0.0,0.0,27,0.00,,---,0.00,VWS V14.01,2013-10-11 23:56:00,
2013-10-11 18:58:00,72.5,36.7,29.71,WSW,249,0.0,0.0,27,0.00,,---,0.00,VWS V14.01,2013-10-11 23:58:00,
2013-10-11 19:00:00,72.3,36.5,29.72,WSW,249,0.0,0.0,27,0.00,,---,0.00,VWS V14.01,2013-10-12 00:00:00,
2013-10-11 19:01:00,72.1,36.3,29.72,WSW,249,0.0,0.0,27,0.00,,---,0.00,VWS V14.01,2013-10-12 00:01:00,
2013-10-11 19:03:00,71.8,36.0,29.72,WSW,249,0.0,0.0,27,0.00,,---,0.00,VWS V14.01,2013-10-12 00:03:00,
2013-10-11 19:05:00,71.6,35.9,29.72,WSW,249,0.0,0.0,27,0.00,,---,0.00,VWS V14.01,2013-10-12 00:05:00,
2013-10-11 19:06:00,71.5,36.7,29.72,WSW,249,0.0,0.0,28,0.00,,---,0.00,VWS V14.01,2013-10-12 00:06:00,
2013-10-11 19:08:00,71.3,36.5,29.72,WSW,249,0.0,0.0,28,0.00,,---,0.00,VWS V14.01,2013-10-12 00:08:00,
2013-10-11 19:10:00,71.1,36.4,29.72,WSW,249,0.0,0.0,28,0.00,,---,0.00,VWS V14.01,2013-10-12 00:10:00,
2013-10-11 19:11:00,71.1,37.3,29.72,WSW,249,0.0,0.0,29,0.00,,---,0.00,VWS V14.01,2013-10-12 00:11:00,
2013-10-11 19:13:00,70.9,37.1,29.72,WSW,249,0.0,0.0,29,0.00,,---,0.00,VWS V14.01,2013-10-12 00:13:00,
2013-10-11 19:15:00,70.9,37.1,29.73,WSW,249,0.0,0.0,29,0.00,,---,0.00,VWS V14.01,2013-10-12 00:15:00,
2013-10-11 19:16:00,70.8,37.0,29.73,WSW,249,0.0,0.0,29,0.00,,---,0.00,VWS V14.01,2013-10-12 00:16:00,
2013-10-11 19:18:00,70.8,37.0,29.73,WSW,249,0.0,0.0,29,0.00,,---,0.00,VWS V14.01,2013-10-12 00:18:00,
2013-10-11 19:20:00,70.6,37.7,29.73,WSW,249,0.0,0.0,30,0.00,,---,0.00,VWS V14.01,2013-10-12 00:20:00,
2013-10-11 19:21:00,70.4,37.5,29.73,WSW,249,0.0,0.0,30,0.00,,---,0.00,VWS V14.01,2013-10-12 00:21:00,
2013-10-11 19:23:00,70.3,37.4,29.73,WSW,249,0.0,0.0,30,0.00,,---,0.00,VWS V14.01,2013-10-12 00:23:00,
2013-10-11 19:25:00,70.1,38.1,29.73,WSW,249,0.0,0.0,31,0.00,,---,0.00,VWS V14.01,2013-10-12 00:25:00,
2013-10-11 19:26:00,69.9,37.9,29.73,WSW,249,0.0,0.0,31,0.00,,---,0.00,VWS V14.01,2013-10-12 00:26:00,
2013-10-11 19:28:00,69.8,37.8,29.73,WSW,249,0.0,0.0,31,0.00,,---,0.00,VWS V14.01,2013-10-12 00:28:00,
2013-10-11 19:30:00,69.6,38.5,29.74,WSW,249,0.0,0.0,32,0.00,,---,0.00,VWS V14.01,2013-10-12 00:30:00,
2013-10-11 19:31:00,69.6,38.5,29.74,WSW,249,0.0,0.0,32,0.00,,---,0.00,VWS V14.01,2013-10-12 00:31:00,
2013-10-11 19:33:00,69.4,38.3,29.74,WSW,249,0.0,0.0,32,0.00,,---,0.00,VWS V14.01,2013-10-12 00:33:00,
2013-10-11 19:35:00,69.4,38.3,29.74,WSW,249,0.0,0.0,32,0.00,,---,0.00,VWS V14.01,2013-10-12 00:35:00,
2013-10-11 19:36:00,69.3,38.2,29.74,WSW,249,0.0,0.0,32,0.00,,---,0.00,VWS V14.01,2013-10-12 00:36:00,
2013-10-11 19:37:00,69.3,38.2,29.74,WSW,249,0.0,0.0,32,0.00,,---,0.00,VWS V14.01,2013-10-12 00:37:00,
2013-10-11 19:38:00,69.1,38.0,29.74,WSW,249,0.0,0.0,32,0.00,,---,0.00,VWS V14.01,2013-10-12 00:38:00,
2013-10-11 19:39:00,69.1,38.0,29.74,WSW,249,0.0,0.0,32,0.00,,---,0.00,VWS V14.01,2013-10-12 00:39:00,
2013-10-11 19:40:00,69.1,38.0,29.74,WSW,249,0.0,0.0,32,0.00,,---,0.00,VWS V14.01,2013-10-12 00:40:00,
2013-10-11 19:41:00,69.1,38.0,29.74,WSW,249,0.0,0.0,32,0.00,,---,0.00,VWS V14.01,2013-10-12 00:41:00,
2013-10-11 19:42:00,69.3,38.2,29.74,WSW,249,0.0,0.0,32,0.00,,---,0.00,VWS V14.01,2013-10-12 00:42:00,
2013-10-11 19:43:00,69.3,38.2,29.74,WSW,249,0.0,0.0,32,0.00,,---,0.00,VWS V14.01,2013-10-12 00:43:00,
2013-10-11 19:44:00,69.3,38.2,29.74,WSW,249,0.0,0.0,32,0.00,,---,0.00,VWS V14.01,2013-10-12 00:44:00,
2013-10-11 19:45:00,69.3,38.2,29.75,WSW,249,0.0,0.0,32,0.00,,---,0.00,VWS V14.01,2013-10-12 00:45:00,
2013-10-11 19:46:00,69.1,38.0,29.75,WSW,249,0.0,0.0,32,0.00,,---,0.00,VWS V14.01,2013-10-12 00:46:00,
2013-10-11 19:47:00,69.1,38.0,29.75,WSW,249,0.0,0.0,32,0.00,,---,0.00,VWS V14.01,2013-10-12 00:47:00,
2013-10-11 19:48:00,68.9,37.8,29.75,WSW,249,0.0,0.0,32,0.00,,---,0.00,VWS V14.01,2013-10-12 00:48:00,
2013-10-11 19:49:00,68.9,37.8,29.75,WSW,249,0.0,0.0,32,0.00,,---,0.00,VWS V14.01,2013-10-12 00:49:00,
2013-10-11 19:50:00,68.4,39.0,29.75,WSW,249,0.0,0.0,34,0.00,,---,0.00,VWS V14.01,2013-10-12 00:50:00,
2013-10-11 19:52:00,68.1,38.7,29.75,WSW,249,0.0,0.0,34,0.00,,---,0.00,VWS V14.01,2013-10-12 00:52:00,
2013-10-11 19:53:00,67.9,38.5,29.75,WSW,249,0.0,0.0,34,0.00,,---,0.00,VWS V14.01,2013-10-12 00:53:00,
2013-10-11 19:54:00,67.8,38.4,29.75,WSW,249,0.0,0.0,34,0.00,,---,0.00,VWS V14.01,2013-10-12 00:54:00,
2013-10-11 19:55:00,67.6,39.0,29.75,WSW,249,0.0,0.0,35,0.00,,---,0.00,VWS V14.01,2013-10-12 00:55:00,
2013-10-11 19:57:00,67.4,38.8,29.75,WSW,249,0.0,0.0,35,0.00,,---,0.00,VWS V14.01,2013-10-12 00:57:00,
2013-10-11 19:58:00,67.3,38.7,29.75,WSW,249,0.0,0.0,35,0.00,,---,0.00,VWS V14.01,2013-10-12 00:58:00,
2013-10-11 19:59:00,67.1,38.6,29.75,WSW,249,0.0,0.0,35,0.00,,---,0.00,VWS V14.01,2013-10-12 00:59:00,
2013-10-11 20:00:00,66.9,38.4,29.75,WSW,249,0.0,0.0,35,0.00,,---,0.00,VWS V14.01,2013-10-12 01:00:00,
2013-10-11 20:02:00,66.8,39.0,29.75,WSW,249,0.0,0.0,36,0.00,,---,0.00,VWS V14.01,2013-10-12 01:02:00,
2013-10-11 20:03:00,66.8,39.0,29.75,WSW,249,0.0,0.0,36,0.00,,---,0.00,VWS V14.01,2013-10-12 01:03:00,
2013-10-11 20:04:00,66.8,39.0,29.75,WSW,249,0.0,0.0,36,0.00,,---,0.00,VWS V14.01,2013-10-12 01:04:00,
2013-10-11 20:05:00,66.6,39.5,29.75,WSW,249,0.0,0.0,37,0.00,,---,0.00,VWS V14.01,2013-10-12 01:05:00,
2013-10-11 20:07:00,66.4,39.4,29.75,WSW,249,0.0,0.0,37,0.00,,---,0.00,VWS V14.01,2013-10-12 01:07:00,
2013-10-11 20:08:00,66.4,40.0,29.75,WSW,249,0.0,1.0,38,0.00,,---,0.00,VWS V14.01,2013-10-12 01:08:00,
2013-10-11 20:09:00,66.3,40.6,29.75,WSW,249,0.0,1.0,39,0.00,,---,0.00,VWS V14.01,2013-10-12 01:09:00,
2013-10-11 20:10:00,66.1,41.1,29.75,WNW,284,6.0,9.0,40,0.00,,---,0.00,VWS V14.01,2013-10-12 01:10:00,
2013-10-11 20:11:00,66.3,41.3,29.75,West,281,12.0,12.0,40,0.00,,---,0.00,VWS V14.01,2013-10-12 01:11:00,
2013-10-11 20:12:00,66.4,41.4,29.75,West,275,0.0,12.0,40,0.00,,---,0.00,VWS V14.01,2013-10-12 01:12:00,
2013-10-11 20:13:00,66.8,41.7,29.75,West,277,1.0,12.0,40,0.00,,---,0.00,VWS V14.01,2013-10-12 01:13:00,
2013-10-11 20:14:00,66.9,41.8,29.75,West,273,0.0,12.0,40,0.00,,---,0.00,VWS V14.01,2013-10-12 01:14:00,
2013-10-11 20:15:00,67.4,42.3,29.76,West,278,3.0,12.0,40,0.00,,---,0.00,VWS V14.01,2013-10-12 01:15:00,
2013-10-11 20:16:00,67.4,42.3,29.76,West,280,1.0,12.0,40,0.00,,---,0.00,VWS V14.01,2013-10-12 01:16:00,
2013-10-11 20:17:00,67.8,42.6,29.76,WNW,286,4.0,12.0,40,0.00,,---,0.00,VWS V14.01,2013-10-12 01:17:00,
2013-10-11 20:18:00,68.1,42.9,29.76,WNW,285,3.0,13.0,40,0.00,,---,0.00,VWS V14.01,2013-10-12 01:18:00,
2013-10-11 20:19:00,68.3,43.1,29.76,West,281,4.0,13.0,40,0.00,,---,0.00,VWS V14.01,2013-10-12 01:19:00,
2013-10-11 20:21:00,68.4,43.2,29.76,WNW,296,10.0,14.0,40,0.00,,---,0.00,VWS V14.01,2013-10-12 01:21:00,
2013-10-11 20:22:00,68.6,43.3,29.76,West,281,5.0,14.0,40,0.00,,---,0.00,VWS V14.01,2013-10-12 01:22:00,
2013-10-11 20:23:00,68.8,43.5,29.76,WNW,289,11.0,14.0,40,0.00,,---,0.00,VWS V14.01,2013-10-12 01:23:00,
2013-10-11 20:24:00,68.8,44.2,29.76,West,271,0.0,14.0,41,0.00,,---,0.00,VWS V14.01,2013-10-12 01:24:00,
2013-10-11 20:26:00,68.6,44.0,29.76,West,281,7.0,14.0,41,0.00,,---,0.00,VWS V14.01,2013-10-12 01:26:00,
2013-10-11 20:27:00,68.6,44.0,29.76,West,275,7.0,18.0,41,0.00,,---,0.00,VWS V14.01,2013-10-12 01:27:00,
2013-10-11 20:28:00,68.4,44.4,29.76,WNW,288,7.0,18.0,42,0.00,,---,0.00,VWS V14.01,2013-10-12 01:28:00,
2013-10-11 20:29:00,68.4,44.4,29.77,WNW,289,6.0,18.0,42,0.00,,---,0.00,VWS V14.01,2013-10-12 01:29:00,
2013-10-11 20:30:00,68.4,44.4,29.77,West,276,5.0,18.0,42,0.00,,---,0.00,VWS V14.01,2013-10-12 01:30:00,
2013-10-11 20:31:00,68.4,45.0,29.77,WNW,289,3.0,14.0,43,0.00,,---,0.00,VWS V14.01,2013-10-12 01:31:00,
2013-10-11 20:32:00,68.3,45.0,29.77,West,268,7.0,14.0,43,0.00,,---,0.00,VWS V14.01,2013-10-12 01:32:00,
2013-10-11 20:33:00,68.3,45.0,29.77,West,276,9.0,14.0,43,0.00,,---,0.00,VWS V14.01,2013-10-12 01:33:00,
2013-10-11 20:34:00,68.1,44.8,29.77,West,281,2.0,14.0,43,0.00,,---,0.00,VWS V14.01,2013-10-12 01:34:00,
2013-10-11 20:35:00,68.1,44.8,29.77,WNW,282,2.0,14.0,43,0.00,,---,0.00,VWS V14.01,2013-10-12 01:35:00,
2013-10-11 20:36:00,68.1,44.8,29.77,WNW,284,10.0,14.0,43,0.00,,---,0.00,VWS V14.01,2013-10-12 01:36:00,
2013-10-11 20:37:00,67.9,45.2,29.77,WNW,298,1.0,14.0,44,0.00,,---,0.00,VWS V14.01,2013-10-12 01:37:00,
2013-10-11 20:39:00,67.9,45.2,29.77,West,275,4.0,14.0,44,0.00,,---,0.00,VWS V14.01,2013-10-12 01:39:00,
2013-10-11 20:40:00,67.8,45.1,29.77,WNW,282,6.0,14.0,44,0.00,,---,0.00,VWS V14.01,2013-10-12 01:40:00,
2013-10-11 20:41:00,67.8,45.1,29.77,WNW,286,3.0,11.0,44,0.00,,---,0.00,VWS V14.01,2013-10-12 01:41:00,
2013-10-11 20:42:00,67.8,45.7,29.77,WNW,298,9.0,13.0,45,0.00,,---,0.00,VWS V14.01,2013-10-12 01:42:00,
2013-10-11 20:44:00,67.6,45.5,29.77,WNW,288,10.0,13.0,45,0.00,,---,0.00,VWS V14.01,2013-10-12 01:44:00,
2013-10-11 20:45:00,67.6,45.5,29.78,WNW,295,10.0,13.0,45,0.00,,---,0.00,VWS V14.01,2013-10-12 01:45:00,
2013-10-11 20:46:00,67.4,45.3,29.78,WNW,295,6.0,14.0,45,0.00,,---,0.00,VWS V14.01,2013-10-12 01:46:00,
2013-10-11 20:48:00,67.4,45.3,29.78,WNW,283,6.0,14.0,45,0.00,,---,0.00,VWS V14.01,2013-10-12 01:48:00,
2013-10-11 20:49:00,67.3,45.2,29.78,West,271,4.0,14.0,45,0.00,,---,0.00,VWS V14.01,2013-10-12 01:49:00,
2013-10-11 20:50:00,67.3,45.2,29.78,WNW,288,5.0,14.0,45,0.00,,---,0.00,VWS V14.01,2013-10-12 01:50:00,
2013-10-11 20:51:00,67.3,45.2,29.78,WNW,293,7.0,12.0,45,0.00,,---,0.00,VWS V14.01,2013-10-12 01:51:00,
2013-10-11 20:53:00,67.1,45.7,29.78,West,261,7.0,15.0,46,0.00,,---,0.00,VWS V14.01,2013-10-12 01:53:00,
2013-10-11 20:55:00,66.9,45.5,29.78,WNW,290,7.0,15.0,46,0.00,,---,0.00,VWS V14.01,2013-10-12 01:55:00,
2013-10-11 20:56:00,66.9,45.5,29.78,West,277,4.0,15.0,46,0.00,,---,0.00,VWS V14.01,2013-10-12 01:56:00,
2013-10-11 20:58:00,66.8,45.9,29.78,West,270,5.0,15.0,47,0.00,,---,0.00,VWS V14.01,2013-10-12 01:58:00,
2013-10-11 21:00:00,66.6,45.8,29.79,WNW,290,4.0,15.0,47,0.00,,---,0.00,VWS V14.01,2013-10-12 02:00:00,
2013-10-11 21:01:00,66.4,45.6,29.79,NW,316,5.0,13.0,47,0.00,,---,0.00,VWS V14.01,2013-10-12 02:01:00,
2013-10-11 21:03:00,66.3,45.5,29.79,WNW,296,5.0,13.0,47,0.00,,---,0.00,VWS V14.01,2013-10-12 02:03:00,
2013-10-11 21:05:00,66.3,46.0,29.79,West,267,3.0,13.0,48,0.00,,---,0.00,VWS V14.01,2013-10-12 02:05:00,
2013-10-11 21:06:00,66.1,45.9,29.79,WNW,288,3.0,17.0,48,0.00,,---,0.00,VWS V14.01,2013-10-12 02:06:00,
2013-10-11 21:08:00,66.1,45.9,29.79,WNW,296,3.0,17.0,48,0.00,,---,0.00,VWS V14.01,2013-10-12 02:08:00,
2013-10-11 21:10:00,66.0,45.8,29.79,West,277,4.0,17.0,48,0.00,,---,0.00,VWS V14.01,2013-10-12 02:10:00,
2013-10-11 21:11:00,66.0,45.8,29.79,West,281,9.0,9.0,48,0.00,,---,0.00,VWS V14.01,2013-10-12 02:11:00,
2013-10-11 21:13:00,65.8,45.6,29.79,West,280,5.0,14.0,48,0.00,,---,0.00,VWS V14.01,2013-10-12 02:13:00,
2013-10-11 21:15:00,65.6,45.4,29.80,West,276,4.0,14.0,48,0.00,,---,0.00,VWS V14.01,2013-10-12 02:15:00,
2013-10-11 21:16:00,65.6,45.4,29.80,West,275,0.0,14.0,48,0.00,,---,0.00,VWS V14.01,2013-10-12 02:16:00,
2013-10-11 21:18:00,65.5,45.8,29.80,West,275,2.0,14.0,49,0.00,,---,0.00,VWS V14.01,2013-10-12 02:18:00,
2013-10-11 21:21:00,65.3,45.7,29.80,West,277,5.0,12.0,49,0.00,,---,0.00,VWS V14.01,2013-10-12 02:21:00,
2013-10-11 21:22:00,65.3,45.7,29.80,NW,319,4.0,12.0,49,0.00,,---,0.00,VWS V14.01,2013-10-12 02:22:00,
2013-10-11 21:23:00,65.2,45.6,29.80,West,279,3.0,12.0,49,0.00,,---,0.00,VWS V14.01,2013-10-12 02:23:00,
2013-10-11 21:26:00,65.2,45.6,29.80,West,275,7.0,12.0,49,0.00,,---,0.00,VWS V14.01,2013-10-12 02:26:00,
2013-10-11 21:27:00,65.0,45.4,29.80,West,274,13.0,13.0,49,0.00,,---,0.00,VWS V14.01,2013-10-12 02:27:00,
2013-10-11 21:28:00,65.0,45.4,29.80,West,269,5.0,13.0,49,0.00,,---,0.00,VWS V14.01,2013-10-12 02:28:00,
2013-10-11 21:31:00,64.8,45.2,29.81,West,281,3.0,7.0,49,0.00,,---,0.00,VWS V14.01,2013-10-12 02:31:00,
2013-10-11 21:32:00,64.8,45.2,29.81,WNW,297,5.0,10.0,49,0.00,,---,0.00,VWS V14.01,2013-10-12 02:32:00,
2013-10-11 21:33:00,64.7,45.1,29.81,WNW,287,5.0,13.0,49,0.00,,---,0.00,VWS V14.01,2013-10-12 02:33:00,
2013-10-11 21:36:00,64.7,45.1,29.81,WNW,298,3.0,13.0,49,0.00,,---,0.00,VWS V14.01,2013-10-12 02:36:00,
2013-10-11 21:37:00,64.7,45.7,29.81,West,273,5.0,13.0,50,0.00,,---,0.00,VWS V14.01,2013-10-12 02:37:00,
2013-10-11 21:39:00,64.5,45.5,29.81,West,277,0.0,13.0,50,0.00,,---,0.00,VWS V14.01,2013-10-12 02:39:00,
2013-10-11 21:41:00,64.5,45.5,29.81,West,275,5.0,14.0,50,0.00,,---,0.00,VWS V14.01,2013-10-12 02:41:00,
2013-10-11 21:42:00,64.3,45.3,29.81,WNW,286,5.0,14.0,50,0.00,,---,0.00,VWS V14.01,2013-10-12 02:42:00,
2013-10-11 21:44:00,64.3,45.3,29.81,West,281,9.0,14.0,50,0.00,,---,0.00,VWS V14.01,2013-10-12 02:44:00,
2013-10-11 21:46:00,64.2,45.2,29.82,West,275,4.0,14.0,50,0.00,,---,0.00,VWS V14.01,2013-10-12 02:46:00,
2013-10-11 21:47:00,64.2,45.2,29.82,West,264,2.0,14.0,50,0.00,,---,0.00,VWS V14.01,2013-10-12 02:47:00,
2013-10-11 21:49:00,64.0,45.0,29.82,WNW,286,5.0,14.0,50,0.00,,---,0.00,VWS V14.01,2013-10-12 02:49:00,
2013-10-11 21:51:00,64.0,45.0,29.82,WNW,282,2.0,10.0,50,0.00,,---,0.00,VWS V14.01,2013-10-12 02:51:00,
2013-10-11 21:52:00,64.0,45.0,29.82,West,281,17.0,17.0,50,0.00,,---,0.00,VWS V14.01,2013-10-12 02:52:00,
2013-10-11 21:55:00,63.9,45.4,29.82,WNW,293,3.0,17.0,51,0.00,,---,0.00,VWS V14.01,2013-10-12 02:55:00,
2013-10-11 21:56:00,63.9,45.4,29.82,West,281,2.0,17.0,51,0.00,,---,0.00,VWS V14.01,2013-10-12 02:56:00,
2013-10-11 21:57:00,63.7,45.2,29.82,WNW,283,4.0,17.0,51,0.00,,---,0.00,VWS V14.01,2013-10-12 02:57:00,
2013-10-11 22:01:00,63.7,45.2,29.83,West,265,6.0,9.0,51,0.00,,---,0.00,VWS V14.01,2013-10-12 03:01:00,
2013-10-11 22:02:00,63.7,45.2,29.83,NW,321,2.0,12.0,51,0.00,,---,0.00,VWS V14.01,2013-10-12 03:02:00,
2013-10-11 22:06:00,63.5,45.1,29.83,WNW,288,5.0,13.0,51,0.00,,---,0.00,VWS V14.01,2013-10-12 03:06:00,
2013-10-11 22:07:00,63.5,45.1,29.83,West,268,6.0,13.0,51,0.00,,---,0.00,VWS V14.01,2013-10-12 03:07:00,
2013-10-11 22:08:00,63.5,45.1,29.83,West,279,4.0,13.0,51,0.00,,---,0.00,VWS V14.01,2013-10-12 03:08:00,
2013-10-11 22:11:00,63.4,45.0,29.83,West,276,5.0,11.0,51,0.00,,---,0.00,VWS V14.01,2013-10-12 03:11:00,
2013-10-11 22:12:00,63.4,45.0,29.83,WNW,286,6.0,13.0,51,0.00,,---,0.00,VWS V14.01,2013-10-12 03:12:00,
2013-10-11 22:13:00,63.4,45.0,29.83,West,260,6.0,13.0,51,0.00,,---,0.00,VWS V14.01,2013-10-12 03:13:00,
2013-10-11 22:16:00,63.2,44.8,29.84,WNW,284,5.0,13.0,51,0.00,,---,0.00,VWS V14.01,2013-10-12 03:16:00,
2013-10-11 22:17:00,63.2,44.8,29.84,WNW,282,2.0,13.0,51,0.00,,---,0.00,VWS V14.01,2013-10-12 03:17:00,
2013-10-11 22:18:00,63.2,44.8,29.84,West,279,3.0,13.0,51,0.00,,---,0.00,VWS V14.01,2013-10-12 03:18:00,
2013-10-11 22:21:00,63.1,44.7,29.84,WNW,296,4.0,11.0,51,0.00,,---,0.00,VWS V14.01,2013-10-12 03:21:00,
2013-10-11 22:22:00,63.1,44.7,29.84,WNW,300,5.0,12.0,51,0.00,,---,0.00,VWS V14.01,2013-10-12 03:22:00,
2013-10-11 22:23:00,62.9,44.5,29.84,WNW,295,1.0,12.0,51,0.00,,---,0.00,VWS V14.01,2013-10-12 03:23:00,
2013-10-11 22:26:00,62.9,44.5,29.84,WNW,290,7.0,12.0,51,0.00,,---,0.00,VWS V14.01,2013-10-12 03:26:00,
2013-10-11 22:27:00,62.9,45.0,29.84,WNW,290,2.0,12.0,52,0.00,,---,0.00,VWS V14.01,2013-10-12 03:27:00,
2013-10-11 22:28:00,62.7,44.8,29.84,NW,317,0.0,12.0,52,0.00,,---,0.00,VWS V14.01,2013-10-12 03:28:00,
2013-10-11 22:31:00,62.7,44.8,29.84,WNW,286,6.0,17.0,52,0.00,,---,0.00,VWS V14.01,2013-10-12 03:31:00,
2013-10-11 22:32:00,62.6,44.8,29.84,WNW,298,3.0,17.0,52,0.00,,---,0.00,VWS V14.01,2013-10-12 03:32:00,
2013-10-11 22:33:00,62.6,44.8,29.84,NW,314,4.0,17.0,52,0.00,,---,0.00,VWS V14.01,2013-10-12 03:33:00,
2013-10-11 22:36:00,62.4,44.6,29.84,NW,319,0.0,17.0,52,0.00,,---,0.00,VWS V14.01,2013-10-12 03:36:00,
2013-10-11 22:37:00,62.4,45.1,29.84,NNW,339,8.0,17.0,53,0.00,,---,0.00,VWS V14.01,2013-10-12 03:37:00,
2013-10-11 22:38:00,62.3,45.0,29.84,WNW,292,2.0,17.0,53,0.00,,---,0.00,VWS V14.01,2013-10-12 03:38:00,
2013-10-11 22:41:00,62.1,44.8,29.84,WNW,294,2.0,5.0,53,0.00,,---,0.00,VWS V14.01,2013-10-12 03:41:00,
2013-10-11 22:42:00,62.1,44.8,29.84,NNW,333,3.0,18.0,53,0.00,,---,0.00,VWS V14.01,2013-10-12 03:42:00,
2013-10-11 22:43:00,62.0,44.7,29.84,West,277,5.0,18.0,53,0.00,,---,0.00,VWS V14.01,2013-10-12 03:43:00,
2013-10-11 22:46:00,61.8,44.5,29.85,WNW,289,3.0,18.0,53,0.00,,---,0.00,VWS V14.01,2013-10-12 03:46:00,
2013-10-11 22:47:00,61.8,44.5,29.85,WNW,290,5.0,18.0,53,0.00,,---,0.00,VWS V14.01,2013-10-12 03:47:00,
2013-10-11 22:48:00,61.8,45.0,29.85,WNW,289,0.0,18.0,54,0.00,,---,0.00,VWS V14.01,2013-10-12 03:48:00,
2013-10-11 22:51:00,61.6,44.8,29.85,NW,324,1.0,14.0,54,0.00,,---,0.00,VWS V14.01,2013-10-12 03:51:00,
2013-10-11 22:52:00,61.6,44.8,29.85,NW,324,0.0,14.0,54,0.00,,---,0.00,VWS V14.01,2013-10-12 03:52:00,
2013-10-11 22:53:00,61.5,44.7,29.85,NW,317,4.0,16.0,54,0.00,,---,0.00,VWS V14.01,2013-10-12 03:53:00,
2013-10-11 22:57:00,61.3,44.5,29.85,North,355,7.0,16.0,54,0.00,,---,0.00,VWS V14.01,2013-10-12 03:57:00,
2013-10-11 22:58:00,61.3,44.5,29.85,NW,304,1.0,16.0,54,0.00,,---,0.00,VWS V14.01,2013-10-12 03:58:00,
2013-10-11 23:01:00,61.2,44.4,29.86,West,275,1.0,9.0,54,0.00,,---,0.00,VWS V14.01,2013-10-12 04:01:00,
2013-10-11 23:06:00,61.0,44.2,29.86,WNW,303,0.0,12.0,54,0.00,,---,0.00,VWS V14.01,2013-10-12 04:06:00,
2013-10-11 23:11:00,60.7,44.5,29.86,NNW,338,0.0,4.0,55,0.00,,---,0.00,VWS V14.01,2013-10-12 04:11:00,
2013-10-11 23:16:00,60.5,44.3,29.86,NW,319,3.0,11.0,55,0.00,,---,0.00,VWS V14.01,2013-10-12 04:16:00,
2013-10-11 23:21:00,60.4,44.2,29.86,West,267,5.0,5.0,55,0.00,,---,0.00,VWS V14.01,2013-10-12 04:21:00,
2013-10-11 23:26:00,60.2,44.0,29.86,NW,314,2.0,12.0,55,0.00,,---,0.00,VWS V14.01,2013-10-12 04:26:00,
2013-10-11 23:31:00,60.1,43.9,29.88,NW,310,0.0,0.0,55,0.00,,---,0.00,VWS V14.01,2013-10-12 04:31:00,
2013-10-11 23:36:00,59.8,43.6,29.88,NW,308,0.0,11.0,55,0.00,,---,0.00,VWS V14.01,2013-10-12 04:36:00,
2013-10-11 23:37:00,59.8,43.6,29.88,West,281,0.0,11.0,55,0.00,,---,0.00,VWS V14.01,2013-10-12 04:37:00,
2013-10-11 23:41:00,59.6,43.4,29.88,WNW,300,0.0,0.0,55,0.00,,---,0.00,VWS V14.01,2013-10-12 04:41:00,
2013-10-11 23:42:00,59.6,43.4,29.88,WNW,300,0.0,0.0,55,0.00,,---,0.00,VWS V14.01,2013-10-12 04:42:00,
2013-10-11 23:46:00,59.5,43.3,29.87,WNW,289,0.0,7.0,55,0.00,,---,0.00,VWS V14.01,2013-10-12 04:46:00,
2013-10-11 23:47:00,59.5,43.3,29.87,WNW,289,1.0,7.0,55,0.00,,---,0.00,VWS V14.01,2013-10-12 04:47:00,
2013-10-11 23:51:00,59.3,43.2,29.87,NNW,332,0.0,4.0,55,0.00,,---,0.00,VWS V14.01,2013-10-12 04:51:00,
2013-10-11 23:52:00,59.3,43.2,29.87,NNW,327,0.0,4.0,55,0.00,,---,0.00,VWS V14.01,2013-10-12 04:52:00,
2013-10-11 23:56:00,59.2,43.1,29.87,NNW,327,0.0,6.0,55,0.00,,---,0.00,VWS V14.01,2013-10-12 04:56:00,
2013-10-11 23:57:00,59.0,42.9,29.87,NNW,329,0.0,6.0,55,0.00,,---,0.00,VWS V14.01,2013-10-12 04:57:00,